Time,TemperatureF,DewpointF,PressureIn,WindDirection,WindDirectionDegrees,WindSpeedMPH,WindSpeedGustMPH,Humidity,HourlyPrecipIn,Conditions,Clouds,dailyrainin,SoftwareType,DateUTC
2013-07-29 00:00:00,71.0,69.2,30.01,West,278,0.0,222.8,94,1.96,,,0.00,VWS V14.01,2013-07-29 04:00:00,
2013-07-29 00:01:00,71.0,69.2,30.01,West,278,0.0,222.8,94,1.96,,,0.00,VWS V14.01,2013-07-29 04:01:00,
2013-07-29 00:02:00,70.4,68.8,30.02,West,278,0.0,222.8,95,1.96,,,0.21,VWS V14.01,2013-07-29 04:02:00,
2013-07-29 00:03:00,71.0,69.2,30.01,West,278,0.0,222.8,94,1.96,,,0.00,VWS V14.01,2013-07-29 04:03:00,
2013-07-29 00:04:00,70.4,68.8,30.02,West,278,0.0,222.8,95,1.96,,,0.21,VWS V14.01,2013-07-29 04:04:00,
2013-07-29 00:05:00,70.4,68.8,30.01,West,278,0.0,222.8,95,1.96,,,0.21,VWS V14.01,2013-07-29 04:05:00,
2013-07-29 00:07:00,71.0,69.2,30.01,West,278,0.0,222.8,94,1.96,,,0.00,VWS V14.01,2013-07-29 04:07:00,
2013-07-29 00:08:00,71.1,69.3,30.01,West,278,0.0,222.8,94,1.96,,,0.00,VWS V14.01,2013-07-29 04:08:00,
2013-07-29 00:09:00,71.1,69.3,30.01,West,278,0.0,222.8,94,1.96,,,0.00,VWS V14.01,2013-07-29 04:09:00,
2013-07-29 00:10:00,71.1,69.3,30.02,West,278,0.0,222.8,94,1.96,,,0.00,VWS V14.01,2013-07-29 04:10:00,
2013-07-29 00:11:00,70.6,68.9,30.01,West,278,0.0,222.8,94,1.96,,,0.21,VWS V14.01,2013-07-29 04:11:00,
2013-07-29 00:12:00,71.1,69.3,30.02,West,278,0.0,222.8,94,1.96,,,0.00,VWS V14.01,2013-07-29 04:12:00,
2013-07-29 00:13:00,71.2,69.4,30.02,West,278,0.0,222.8,94,1.96,,,0.00,VWS V14.01,2013-07-29 04:13:00,
2013-07-29 00:14:00,71.1,69.3,30.01,West,278,0.0,222.8,94,1.96,,,0.00,VWS V14.01,2013-07-29 04:14:00,
2013-07-29 00:15:00,71.2,69.4,30.01,West,278,0.0,222.8,94,1.96,,,0.00,VWS V14.01,2013-07-29 04:15:00,
2013-07-29 00:16:00,70.6,68.9,30.01,West,278,0.0,222.8,94,1.96,,,0.21,VWS V14.01,2013-07-29 04:16:00,
2013-07-29 00:17:00,71.2,69.4,30.01,West,278,0.0,222.8,94,1.96,,,0.00,VWS V14.01,2013-07-29 04:17:00,
2013-07-29 00:18:00,71.1,69.3,30.01,West,278,0.0,222.8,94,1.96,,,0.00,VWS V14.01,2013-07-29 04:18:00,
2013-07-29 00:19:00,71.1,69.3,30.01,West,278,0.0,222.8,94,1.96,,,0.00,VWS V14.01,2013-07-29 04:19:00,
2013-07-29 00:20:00,71.1,69.3,30.01,West,278,0.0,222.8,94,1.96,,,0.00,VWS V14.01,2013-07-29 04:20:00,
2013-07-29 00:21:00,70.6,68.9,30.01,West,278,0.0,222.8,94,1.96,,,0.21,VWS V14.01,2013-07-29 04:21:00,
2013-07-29 00:22:00,71.0,69.2,30.01,West,278,0.0,222.8,94,1.96,,,0.00,VWS V14.01,2013-07-29 04:22:00,
2013-07-29 00:23:00,71.1,69.3,30.01,West,278,0.0,222.8,94,1.96,,,0.00,VWS V14.01,2013-07-29 04:23:00,
2013-07-29 00:25:00,71.0,69.2,30.01,West,278,0.0,222.8,94,1.96,,,0.00,VWS V14.01,2013-07-29 04:25:00,
2013-07-29 00:26:00,71.0,69.2,30.02,West,278,0.0,222.8,94,1.96,,,0.00,VWS V14.01,2013-07-29 04:26:00,
2013-07-29 00:27:00,70.8,69.1,30.02,West,278,0.0,222.8,94,1.96,,,0.21,VWS V14.01,2013-07-29 04:27:00,
2013-07-29 00:28:00,71.0,69.3,30.01,West,278,0.0,222.8,94,1.96,,,0.00,VWS V14.01,2013-07-29 04:28:00,
2013-07-29 00:29:00,71.0,69.3,30.01,West,278,0.0,222.8,94,1.96,,,0.00,VWS V14.01,2013-07-29 04:29:00,
2013-07-29 00:30:00,71.0,69.3,30.01,West,278,0.0,222.8,94,1.96,,,0.00,VWS V14.01,2013-07-29 04:30:00,
2013-07-29 00:31:00,71.0,69.3,30.01,West,278,0.0,222.8,94,1.96,,,0.00,VWS V14.01,2013-07-29 04:31:00,
2013-07-29 00:32:00,70.9,69.1,30.01,West,278,0.0,222.8,94,1.96,,,0.21,VWS V14.01,2013-07-29 04:32:00,
2013-07-29 00:33:00,71.0,69.3,30.01,West,278,0.0,222.8,94,1.96,,,0.00,VWS V14.01,2013-07-29 04:33:00,
2013-07-29 00:34:00,71.0,69.3,30.01,West,278,0.0,222.8,94,1.96,,,0.00,VWS V14.01,2013-07-29 04:34:00,
2013-07-29 00:35:00,71.0,69.2,30.01,West,278,0.0,222.8,94,1.96,,,0.00,VWS V14.01,2013-07-29 04:35:00,
2013-07-29 00:36:00,71.0,69.2,30.01,West,278,0.0,222.8,94,1.96,,,0.00,VWS V14.01,2013-07-29 04:36:00,
2013-07-29 00:37:00,70.9,69.1,30.01,West,278,0.0,222.8,94,1.96,,,0.21,VWS V14.01,2013-07-29 04:37:00,
2013-07-29 00:38:00,71.0,69.2,30.01,West,278,0.0,222.8,94,1.96,,,0.00,VWS V14.01,2013-07-29 04:38:00,
2013-07-29 00:39:00,71.0,69.2,30.01,West,278,0.0,222.8,94,1.96,,,0.00,VWS V14.01,2013-07-29 04:39:00,
2013-07-29 00:40:00,71.1,69.3,30.01,West,278,0.0,222.8,94,1.96,,,0.00,VWS V14.01,2013-07-29 04:40:00,
2013-07-29 00:41:00,71.1,69.3,30.00,West,278,0.0,222.8,94,1.96,,,0.00,VWS V14.01,2013-07-29 04:41:00,
2013-07-29 00:42:00,71.1,69.3,30.01,West,278,0.0,222.8,94,1.96,,,0.00,VWS V14.01,2013-07-29 04:42:00,
2013-07-29 00:43:00,70.8,69.1,30.01,West,278,0.0,222.8,94,1.96,,,0.21,VWS V14.01,2013-07-29 04:43:00,
2013-07-29 00:44:00,71.0,69.3,30.00,West,278,0.0,222.8,94,1.96,,,0.00,VWS V14.01,2013-07-29 04:44:00,
2013-07-29 00:45:00,71.0,69.3,30.00,West,278,0.0,222.8,94,1.96,,,0.00,VWS V14.01,2013-07-29 04:45:00,
2013-07-29 00:46:00,71.0,69.3,30.00,West,278,0.0,222.8,94,1.96,,,0.00,VWS V14.01,2013-07-29 04:46:00,
2013-07-29 00:48:00,70.8,69.0,30.01,West,278,0.0,222.8,94,1.96,,,0.21,VWS V14.01,2013-07-29 04:48:00,
2013-07-29 00:49:00,70.9,69.2,30.00,West,278,0.0,222.8,94,1.96,,,0.00,VWS V14.01,2013-07-29 04:49:00,
2013-07-29 00:50:00,70.9,69.2,30.00,West,278,0.0,222.8,94,1.96,,,0.00,VWS V14.01,2013-07-29 04:50:00,
2013-07-29 00:51:00,70.9,69.2,30.00,West,278,0.0,222.8,94,1.96,,,0.00,VWS V14.01,2013-07-29 04:51:00,
2013-07-29 00:52:00,70.9,69.2,30.00,West,278,0.0,222.8,94,1.96,,,0.00,VWS V14.01,2013-07-29 04:52:00,
2013-07-29 00:53:00,71.0,69.2,30.01,West,278,0.0,222.8,94,1.96,,,0.21,VWS V14.01,2013-07-29 04:53:00,
2013-07-29 00:54:00,70.9,69.2,30.00,West,278,0.0,222.8,94,1.96,,,0.00,VWS V14.01,2013-07-29 04:54:00,
2013-07-29 00:55:00,70.9,69.2,30.00,West,278,0.0,222.8,94,1.96,,,0.00,VWS V14.01,2013-07-29 04:55:00,
2013-07-29 00:56:00,70.9,69.2,30.00,West,278,0.0,222.8,94,1.96,,,0.00,VWS V14.01,2013-07-29 04:56:00,
2013-07-29 00:57:00,70.9,69.2,30.00,West,278,0.0,222.8,94,1.96,,,0.00,VWS V14.01,2013-07-29 04:57:00,
2013-07-29 00:58:00,70.9,69.2,30.00,West,278,0.0,222.8,94,1.96,,,0.00,VWS V14.01,2013-07-29 04:58:00,
2013-07-29 00:59:00,70.9,69.2,30.00,West,278,0.0,222.8,94,1.96,,,0.00,VWS V14.01,2013-07-29 04:59:00,
2013-07-29 01:00:00,70.9,69.2,30.00,West,278,0.0,222.8,94,1.96,,,0.00,VWS V14.01,2013-07-29 05:00:00,
2013-07-29 01:01:00,70.9,69.2,30.00,West,278,0.0,222.8,94,1.96,,,0.00,VWS V14.01,2013-07-29 05:01:00,
2013-07-29 01:02:00,70.8,69.1,30.00,West,278,0.0,222.8,94,1.96,,,0.00,VWS V14.01,2013-07-29 05:02:00,
2013-07-29 01:03:00,70.8,69.1,30.00,West,278,0.0,222.8,94,1.96,,,0.00,VWS V14.01,2013-07-29 05:03:00,
2013-07-29 01:04:00,70.8,69.1,30.00,West,278,0.0,222.8,94,1.96,,,0.00,VWS V14.01,2013-07-29 05:04:00,
2013-07-29 01:05:00,70.8,69.1,30.00,West,278,0.0,222.8,94,1.96,,,0.00,VWS V14.01,2013-07-29 05:05:00,
2013-07-29 01:06:00,70.8,69.1,30.00,West,278,0.0,222.8,94,1.96,,,0.00,VWS V14.01,2013-07-29 05:06:00,
2013-07-29 01:07:00,70.8,69.1,30.00,West,278,0.0,222.8,94,1.96,,,0.00,VWS V14.01,2013-07-29 05:07:00,
2013-07-29 01:08:00,70.7,69.0,30.00,West,278,0.0,222.8,94,1.96,,,0.00,VWS V14.01,2013-07-29 05:08:00,
2013-07-29 01:09:00,70.7,69.0,30.00,West,278,0.0,222.8,94,1.96,,,0.00,VWS V14.01,2013-07-29 05:09:00,
2013-07-29 01:10:00,70.7,69.0,30.00,West,278,0.0,222.8,94,1.96,,,0.00,VWS V14.01,2013-07-29 05:10:00,
2013-07-29 01:11:00,70.6,68.9,30.00,West,278,0.0,222.8,94,1.96,,,0.00,VWS V14.01,2013-07-29 05:11:00,
2013-07-29 01:13:00,70.6,68.9,30.00,West,278,0.0,222.8,94,1.96,,,0.00,VWS V14.01,2013-07-29 05:13:00,
2013-07-29 01:14:00,70.6,68.9,30.00,West,278,0.0,222.8,94,1.96,,,0.00,VWS V14.01,2013-07-29 05:14:00,
2013-07-29 01:15:00,70.7,69.1,30.00,West,278,0.0,222.8,94,1.96,,,0.00,VWS V14.01,2013-07-29 05:15:00,
2013-07-29 01:16:00,70.7,69.1,30.00,West,278,0.0,222.8,94,1.96,,,0.00,VWS V14.01,2013-07-29 05:16:00,
2013-07-29 01:17:00,70.7,69.1,30.01,West,278,0.0,222.8,94,1.96,,,0.00,VWS V14.01,2013-07-29 05:17:00,
2013-07-29 01:19:00,70.7,69.1,30.00,West,278,0.0,222.8,94,1.96,,,0.00,VWS V14.01,2013-07-29 05:19:00,
2013-07-29 01:20:00,70.7,69.1,30.00,West,278,0.0,222.8,94,1.96,,,0.00,VWS V14.01,2013-07-29 05:20:00,
2013-07-29 01:21:00,70.8,69.2,30.00,West,278,0.0,222.8,94,1.96,,,0.00,VWS V14.01,2013-07-29 05:21:00,
2013-07-29 01:22:00,70.7,69.1,30.00,West,278,0.0,222.8,94,1.96,,,0.00,VWS V14.01,2013-07-29 05:22:00,
2013-07-29 01:23:00,70.8,69.2,30.00,West,278,0.0,222.8,94,1.96,,,0.00,VWS V14.01,2013-07-29 05:23:00,
2013-07-29 01:25:00,70.7,69.1,30.01,West,278,0.0,222.8,94,1.96,,,0.00,VWS V14.01,2013-07-29 05:25:00,
2013-07-29 01:26:00,70.8,69.1,30.01,West,278,0.0,222.8,94,1.96,,,0.00,VWS V14.01,2013-07-29 05:26:00,
2013-07-29 01:27:00,70.8,69.1,30.01,West,278,0.0,222.8,94,1.96,,,0.00,VWS V14.01,2013-07-29 05:27:00,
2013-07-29 01:28:00,70.8,69.1,30.01,West,278,0.0,222.8,94,1.96,,,0.00,VWS V14.01,2013-07-29 05:28:00,
2013-07-29 01:30:00,70.8,69.1,30.01,West,278,0.0,222.8,94,1.96,,,0.00,VWS V14.01,2013-07-29 05:30:00,
2013-07-29 01:31:00,70.9,69.2,30.01,West,278,0.0,222.8,94,1.96,,,0.00,VWS V14.01,2013-07-29 05:31:00,
2013-07-29 01:35:00,70.9,69.1,30.01,West,278,0.0,222.8,94,1.96,,,0.00,VWS V14.01,2013-07-29 05:35:00,
2013-07-29 01:37:00,70.9,69.1,30.01,West,278,0.0,222.8,94,1.96,,,0.00,VWS V14.01,2013-07-29 05:37:00,
2013-07-29 01:38:00,70.9,69.1,30.01,West,278,0.0,222.8,94,1.96,,,0.00,VWS V14.01,2013-07-29 05:38:00,
2013-07-29 01:42:00,70.9,69.0,30.01,West,278,0.0,222.8,94,1.96,,,0.00,VWS V14.01,2013-07-29 05:42:00,
2013-07-29 01:43:00,70.9,69.0,30.01,West,278,0.0,222.8,94,1.96,,,0.00,VWS V14.01,2013-07-29 05:43:00,
2013-07-29 01:44:00,70.9,69.0,30.01,West,278,0.0,222.8,94,1.96,,,0.00,VWS V14.01,2013-07-29 05:44:00,
2013-07-29 01:48:00,70.9,69.0,30.01,West,278,0.0,222.8,94,1.96,,,0.00,VWS V14.01,2013-07-29 05:48:00,
2013-07-29 01:50:00,70.9,69.0,30.01,West,278,0.0,222.8,94,1.96,,,0.00,VWS V14.01,2013-07-29 05:50:00,
2013-07-29 01:51:00,70.9,69.0,30.01,West,278,0.0,222.8,94,1.96,,,0.00,VWS V14.01,2013-07-29 05:51:00,
2013-07-29 01:53:00,70.9,69.0,30.01,West,278,0.0,222.8,94,1.96,,,0.00,VWS V14.01,2013-07-29 05:53:00,
2013-07-29 01:58:00,70.9,69.1,30.01,West,278,0.0,222.8,94,1.96,,,0.00,VWS V14.01,2013-07-29 05:58:00,
2013-07-29 01:59:00,70.8,69.0,30.01,West,278,0.0,222.8,94,1.96,,,0.00,VWS V14.01,2013-07-29 05:59:00,
2013-07-29 02:02:00,70.8,69.0,30.01,West,278,0.0,222.8,94,1.96,,,0.00,VWS V14.01,2013-07-29 06:02:00,
2013-07-29 02:04:00,70.7,68.9,30.01,West,278,0.0,222.8,94,1.96,,,0.00,VWS V14.01,2013-07-29 06:04:00,
2013-07-29 02:15:00,70.7,69.1,30.01,West,278,0.0,222.8,94,1.96,,,0.00,VWS V14.01,2013-07-29 06:15:00,
2013-07-29 02:17:00,70.6,68.8,30.01,West,278,0.0,222.8,94,1.96,,,0.00,VWS V14.01,2013-07-29 06:17:00,
2013-07-29 02:21:00,70.8,69.2,30.01,West,278,0.0,222.8,94,1.96,,,0.00,VWS V14.01,2013-07-29 06:21:00,
2013-07-29 02:26:00,70.8,69.1,30.01,West,278,0.0,222.8,94,1.96,,,0.00,VWS V14.01,2013-07-29 06:26:00,
2013-07-29 02:31:00,70.9,69.1,30.01,West,278,0.0,222.8,94,1.96,,,0.00,VWS V14.01,2013-07-29 06:31:00,
2013-07-29 02:37:00,70.9,69.0,30.01,West,278,0.0,222.8,94,1.96,,,0.00,VWS V14.01,2013-07-29 06:37:00,
2013-07-29 02:42:00,70.9,69.0,30.01,West,278,0.0,222.8,94,1.96,,,0.00,VWS V14.01,2013-07-29 06:42:00,
2013-07-29 02:49:00,70.9,69.0,30.01,West,278,0.0,222.8,94,1.96,,,0.00,VWS V14.01,2013-07-29 06:49:00,
2013-07-29 02:54:00,70.8,68.9,30.01,West,278,0.0,222.8,94,1.96,,,0.00,VWS V14.01,2013-07-29 06:54:00,
2013-07-29 03:02:00,70.7,68.9,30.01,West,278,0.0,222.8,94,1.96,,,0.00,VWS V14.01,2013-07-29 07:02:00,
2013-07-29 03:07:00,70.7,68.9,30.01,West,278,0.0,222.8,94,1.96,,,0.00,VWS V14.01,2013-07-29 07:07:00,
2013-07-29 03:12:00,70.7,68.9,30.01,West,278,0.0,222.8,94,1.96,,,0.00,VWS V14.01,2013-07-29 07:12:00,
2013-07-29 03:17:00,70.6,68.7,30.00,West,278,0.0,222.8,94,1.96,,,0.00,VWS V14.01,2013-07-29 07:17:00,
2013-07-29 03:22:00,70.6,68.7,30.01,West,278,0.0,222.8,94,1.96,,,0.00,VWS V14.01,2013-07-29 07:22:00,
2013-07-29 03:28:00,70.6,68.7,30.01,West,278,0.0,222.8,94,1.96,,,0.00,VWS V14.01,2013-07-29 07:28:00,
2013-07-29 03:33:00,70.6,68.8,30.02,West,278,0.0,222.8,94,1.96,,,0.00,VWS V14.01,2013-07-29 07:33:00,
2013-07-29 03:38:00,70.6,68.8,30.02,West,278,0.0,222.8,94,1.96,,,0.00,VWS V14.01,2013-07-29 07:38:00,
2013-07-29 03:43:00,70.7,68.9,30.02,West,278,0.0,222.8,94,1.96,,,0.00,VWS V14.01,2013-07-29 07:43:00,
2013-07-29 03:49:00,70.7,68.9,30.02,West,278,0.0,222.8,94,1.96,,,0.00,VWS V14.01,2013-07-29 07:49:00,
2013-07-29 03:54:00,70.6,68.8,30.02,West,278,0.0,222.8,94,1.96,,,0.00,VWS V14.01,2013-07-29 07:54:00,
2013-07-29 03:59:00,70.5,68.8,30.02,West,278,0.0,222.8,94,1.96,,,0.00,VWS V14.01,2013-07-29 07:59:00,
2013-07-29 04:05:00,70.5,68.8,30.02,West,278,0.0,222.8,94,1.96,,,0.00,VWS V14.01,2013-07-29 08:05:00,
2013-07-29 04:10:00,70.5,68.8,30.02,West,278,0.0,222.8,94,1.96,,,0.00,VWS V14.01,2013-07-29 08:10:00,
2013-07-29 04:16:00,70.5,68.8,30.02,West,278,0.0,222.8,94,1.96,,,0.00,VWS V14.01,2013-07-29 08:16:00,
2013-07-29 04:21:00,70.4,68.8,30.02,West,278,0.0,222.8,94,1.96,,,0.00,VWS V14.01,2013-07-29 08:21:00,
2013-07-29 04:26:00,70.3,68.7,30.01,West,278,0.0,222.8,95,1.96,,,0.00,VWS V14.01,2013-07-29 08:26:00,
2013-07-29 04:31:00,70.1,68.6,30.01,West,278,0.0,222.8,95,1.96,,,0.00,VWS V14.01,2013-07-29 08:31:00,
2013-07-29 04:37:00,70.0,68.5,30.01,West,278,0.0,222.8,95,1.96,,,0.00,VWS V14.01,2013-07-29 08:37:00,
2013-07-29 04:42:00,70.0,68.4,30.01,West,278,0.0,222.8,95,1.96,,,0.00,VWS V14.01,2013-07-29 08:42:00,
2013-07-29 04:47:00,69.9,68.2,30.01,West,278,0.0,222.8,94,1.96,,,0.00,VWS V14.01,2013-07-29 08:47:00,
2013-07-29 04:52:00,69.9,68.0,30.01,West,278,0.0,222.8,94,1.96,,,0.00,VWS V14.01,2013-07-29 08:52:00,
2013-07-29 04:58:00,69.9,68.0,30.01,West,278,0.0,222.8,94,1.96,,,0.00,VWS V14.01,2013-07-29 08:58:00,
2013-07-29 05:03:00,69.7,67.8,30.01,West,278,0.0,222.8,94,1.96,,,0.00,VWS V14.01,2013-07-29 09:03:00,
2013-07-29 05:09:00,69.5,67.6,30.01,West,278,0.0,222.8,94,1.96,,,0.00,VWS V14.01,2013-07-29 09:09:00,
2013-07-29 05:14:00,69.5,67.7,30.01,West,278,0.0,222.8,94,1.96,,,0.00,VWS V14.01,2013-07-29 09:14:00,
2013-07-29 05:18:00,69.4,67.5,30.01,West,278,0.0,222.8,94,1.96,,,0.00,VWS V14.01,2013-07-29 09:18:00,
2013-07-29 05:24:00,69.4,67.5,30.01,West,278,0.0,222.8,94,1.96,,,0.00,VWS V14.01,2013-07-29 09:24:00,
2013-07-29 05:29:00,69.2,67.3,30.02,West,278,0.0,222.8,94,1.96,,,0.00,VWS V14.01,2013-07-29 09:29:00,
2013-07-29 05:35:00,69.1,67.2,30.01,West,278,0.0,222.8,94,1.97,,,0.01,VWS V14.01,2013-07-29 09:35:00,
2013-07-29 05:40:00,69.0,67.1,30.01,West,278,0.0,222.8,94,1.97,,,0.01,VWS V14.01,2013-07-29 09:40:00,
2013-07-29 05:46:00,68.8,67.0,30.01,West,278,0.0,222.8,94,1.97,,,0.01,VWS V14.01,2013-07-29 09:46:00,
2013-07-29 05:51:00,68.7,66.8,30.01,West,278,0.0,222.8,94,1.97,,,0.01,VWS V14.01,2013-07-29 09:51:00,
2013-07-29 05:56:00,68.6,66.8,30.02,West,278,0.0,222.8,94,1.97,,,0.01,VWS V14.01,2013-07-29 09:56:00,
2013-07-29 06:02:00,68.6,66.8,30.02,West,278,0.0,222.8,94,1.97,,,0.01,VWS V14.01,2013-07-29 10:02:00,
2013-07-29 06:08:00,68.7,67.0,30.02,West,278,0.0,222.8,94,1.97,,,0.01,VWS V14.01,2013-07-29 10:08:00,
2013-07-29 06:14:00,68.8,67.1,30.03,West,278,0.0,222.8,94,1.97,,,0.01,VWS V14.01,2013-07-29 10:14:00,
2013-07-29 06:19:00,69.0,67.4,30.03,West,278,0.0,222.8,94,1.97,,,0.01,VWS V14.01,2013-07-29 10:19:00,
2013-07-29 06:24:00,69.1,67.5,30.02,West,278,0.0,222.8,95,1.97,,,0.01,VWS V14.01,2013-07-29 10:24:00,
2013-07-29 06:30:00,69.3,67.8,30.02,West,278,0.0,222.8,95,1.97,,,0.01,VWS V14.01,2013-07-29 10:30:00,
2013-07-29 06:35:00,69.5,67.9,30.02,West,278,0.0,222.8,95,1.97,,,0.01,VWS V14.01,2013-07-29 10:35:00,
2013-07-29 06:42:00,69.4,67.8,30.02,West,278,0.0,222.8,95,1.97,,,0.01,VWS V14.01,2013-07-29 10:42:00,
2013-07-29 06:47:00,69.5,67.9,30.02,West,278,0.0,222.8,95,1.97,,,0.01,VWS V14.01,2013-07-29 10:47:00,
2013-07-29 06:52:00,69.6,68.0,30.02,West,278,0.0,222.8,95,1.97,,,0.01,VWS V14.01,2013-07-29 10:52:00,
2013-07-29 06:58:00,69.7,68.1,30.02,West,278,0.0,222.8,95,1.97,,,0.01,VWS V14.01,2013-07-29 10:58:00,
2013-07-29 07:03:00,69.9,68.3,30.02,West,278,0.0,222.8,95,1.97,,,0.01,VWS V14.01,2013-07-29 11:03:00,
2013-07-29 07:09:00,70.2,68.6,30.03,West,278,0.0,222.8,95,1.97,,,0.01,VWS V14.01,2013-07-29 11:09:00,
2013-07-29 07:15:00,70.4,68.8,30.03,West,278,0.0,222.8,95,1.97,,,0.01,VWS V14.01,2013-07-29 11:15:00,
2013-07-29 07:20:00,70.4,68.8,30.04,West,278,0.0,222.8,94,1.97,,,0.01,VWS V14.01,2013-07-29 11:20:00,
2013-07-29 07:26:00,70.3,68.7,30.04,West,278,0.0,222.8,94,1.97,,,0.01,VWS V14.01,2013-07-29 11:26:00,
2013-07-29 07:32:00,70.1,68.6,30.05,West,278,0.0,222.8,95,1.97,,,0.01,VWS V14.01,2013-07-29 11:32:00,
2013-07-29 07:38:00,70.0,68.5,30.05,West,278,0.0,222.8,95,1.97,,,0.01,VWS V14.01,2013-07-29 11:38:00,
2013-07-29 07:43:00,70.3,68.8,30.05,West,278,0.0,222.8,95,1.97,,,0.01,VWS V14.01,2013-07-29 11:43:00,
2013-07-29 07:48:00,70.5,68.9,30.05,West,278,0.0,222.8,95,1.97,,,0.01,VWS V14.01,2013-07-29 11:48:00,
2013-07-29 07:54:00,70.5,68.9,30.05,West,278,0.0,222.8,95,1.97,,,0.01,VWS V14.01,2013-07-29 11:54:00,
2013-07-29 07:59:00,70.5,68.8,30.05,West,278,0.0,222.8,94,1.97,,,0.01,VWS V14.01,2013-07-29 11:59:00,
2013-07-29 08:04:00,70.5,68.7,30.05,West,278,0.0,222.8,94,1.97,,,0.01,VWS V14.01,2013-07-29 12:04:00,
2013-07-29 08:10:00,70.6,68.7,30.05,West,278,0.0,222.8,94,1.97,,,0.01,VWS V14.01,2013-07-29 12:10:00,
2013-07-29 08:15:00,70.9,69.0,30.05,West,278,0.0,222.8,94,1.97,,,0.01,VWS V14.01,2013-07-29 12:15:00,
2013-07-29 08:21:00,71.2,69.1,30.05,West,278,0.0,222.8,93,1.97,,,0.01,VWS V14.01,2013-07-29 12:21:00,
2013-07-29 08:26:00,71.5,69.3,30.05,West,278,0.0,222.8,93,1.97,,,0.01,VWS V14.01,2013-07-29 12:26:00,
2013-07-29 08:31:00,71.8,69.4,30.05,West,278,0.0,222.8,92,1.97,,,0.01,VWS V14.01,2013-07-29 12:31:00,
2013-07-29 08:37:00,72.3,69.8,30.05,West,278,0.0,222.8,92,1.97,,,0.01,VWS V14.01,2013-07-29 12:37:00,
2013-07-29 08:42:00,72.8,70.2,30.06,West,278,0.0,222.8,92,1.97,,,0.01,VWS V14.01,2013-07-29 12:42:00,
2013-07-29 08:47:00,73.3,70.4,30.06,West,278,0.0,222.8,90,1.97,,,0.01,VWS V14.01,2013-07-29 12:47:00,
2013-07-29 08:53:00,73.6,70.1,30.06,West,278,0.0,222.8,89,1.97,,,0.01,VWS V14.01,2013-07-29 12:53:00,
2013-07-29 08:58:00,74.0,70.7,30.06,West,278,0.0,222.8,89,1.97,,,0.01,VWS V14.01,2013-07-29 12:58:00,
2013-07-29 09:04:00,74.5,70.7,30.06,West,278,0.0,222.8,88,1.97,,,0.01,VWS V14.01,2013-07-29 13:04:00,
2013-07-29 09:09:00,74.6,69.7,30.06,West,278,0.0,222.8,85,1.97,,,0.01,VWS V14.01,2013-07-29 13:09:00,
2013-07-29 09:15:00,74.5,69.4,30.06,West,278,0.0,222.8,84,1.97,,,0.01,VWS V14.01,2013-07-29 13:15:00,
2013-07-29 09:20:00,74.7,69.9,30.06,West,278,0.0,222.8,85,1.97,,,0.01,VWS V14.01,2013-07-29 13:20:00,
2013-07-29 09:25:00,75.2,69.9,30.07,West,278,0.0,222.8,84,1.97,,,0.01,VWS V14.01,2013-07-29 13:25:00,
2013-07-29 09:31:00,75.9,69.9,30.06,West,278,0.0,222.8,82,1.97,,,0.01,VWS V14.01,2013-07-29 13:31:00,
2013-07-29 09:36:00,75.3,69.0,30.07,West,278,0.0,222.8,81,1.97,,,0.01,VWS V14.01,2013-07-29 13:36:00,
2013-07-29 09:41:00,74.8,69.4,30.07,West,278,0.0,222.8,83,1.97,,,0.01,VWS V14.01,2013-07-29 13:41:00,
2013-07-29 09:47:00,75.1,69.1,30.07,West,278,0.0,222.8,82,1.97,,,0.01,VWS V14.01,2013-07-29 13:47:00,
2013-07-29 09:53:00,75.1,67.7,30.07,West,278,0.0,222.8,78,1.97,,,0.01,VWS V14.01,2013-07-29 13:53:00,
2013-07-29 09:58:00,74.9,68.0,30.07,West,278,0.0,222.8,79,1.97,,,0.01,VWS V14.01,2013-07-29 13:58:00,
2013-07-29 10:03:00,74.9,68.4,30.07,West,278,0.0,222.8,80,1.97,,,0.01,VWS V14.01,2013-07-29 14:03:00,
2013-07-29 10:09:00,75.3,68.7,30.07,West,278,0.0,222.8,80,1.97,,,0.01,VWS V14.01,2013-07-29 14:09:00,
2013-07-29 10:14:00,75.2,68.2,30.07,West,278,0.0,222.8,79,1.97,,,0.01,VWS V14.01,2013-07-29 14:14:00,
2013-07-29 10:20:00,74.9,68.5,30.07,West,278,0.0,222.8,80,1.97,,,0.01,VWS V14.01,2013-07-29 14:20:00,
2013-07-29 10:25:00,74.8,68.8,30.07,West,278,0.0,222.8,82,1.97,,,0.01,VWS V14.01,2013-07-29 14:25:00,
2013-07-29 10:30:00,75.0,68.8,30.07,West,278,0.0,222.8,81,1.97,,,0.01,VWS V14.01,2013-07-29 14:30:00,
2013-07-29 10:36:00,75.7,68.9,30.07,West,278,0.0,222.8,80,1.97,,,0.01,VWS V14.01,2013-07-29 14:36:00,
2013-07-29 10:42:00,76.2,68.1,30.07,West,278,0.0,222.8,76,1.97,,,0.01,VWS V14.01,2013-07-29 14:42:00,
2013-07-29 10:47:00,75.9,67.3,30.07,West,278,0.0,222.8,75,1.97,,,0.01,VWS V14.01,2013-07-29 14:47:00,
2013-07-29 10:52:00,76.3,67.7,30.07,West,278,0.0,222.8,75,1.97,,,0.01,VWS V14.01,2013-07-29 14:52:00,
2013-07-29 10:57:00,76.4,67.6,30.07,West,278,0.0,222.8,74,1.97,,,0.01,VWS V14.01,2013-07-29 14:57:00,
2013-07-29 11:03:00,76.4,67.6,30.07,West,278,0.0,222.8,74,1.97,,,0.01,VWS V14.01,2013-07-29 15:03:00,
2013-07-29 11:08:00,76.3,67.8,30.07,West,278,0.0,222.8,75,1.97,,,0.01,VWS V14.01,2013-07-29 15:08:00,
2013-07-29 11:13:00,76.3,68.4,30.07,West,278,0.0,222.8,77,1.97,,,0.01,VWS V14.01,2013-07-29 15:13:00,
2013-07-29 11:19:00,76.8,68.4,30.07,West,278,0.0,222.8,75,1.97,,,0.01,VWS V14.01,2013-07-29 15:19:00,
2013-07-29 11:24:00,77.0,68.4,30.06,West,278,0.0,222.8,75,1.97,,,0.01,VWS V14.01,2013-07-29 15:24:00,
2013-07-29 11:29:00,77.9,67.7,30.06,West,278,0.0,222.8,71,1.97,,,0.01,VWS V14.01,2013-07-29 15:29:00,
2013-07-29 11:35:00,79.0,67.5,30.06,West,278,0.0,222.8,68,1.97,,,0.01,VWS V14.01,2013-07-29 15:35:00,
2013-07-29 11:40:00,79.9,66.9,30.06,West,278,0.0,222.8,65,1.97,,,0.01,VWS V14.01,2013-07-29 15:40:00,
2013-07-29 11:45:00,81.0,66.0,30.06,West,278,0.0,222.8,60,1.97,,,0.01,VWS V14.01,2013-07-29 15:45:00,
2013-07-29 11:51:00,81.5,67.6,30.06,West,278,0.0,222.8,63,1.97,,,0.01,VWS V14.01,2013-07-29 15:51:00,
2013-07-29 11:56:00,82.2,65.4,30.06,West,278,0.0,222.8,57,1.97,,,0.01,VWS V14.01,2013-07-29 15:56:00,
2013-07-29 12:01:00,82.7,65.9,30.06,West,278,0.0,222.8,57,1.97,,,0.01,VWS V14.01,2013-07-29 16:01:00,
2013-07-29 12:07:00,83.7,65.6,30.06,West,278,0.0,222.8,55,1.97,,,0.01,VWS V14.01,2013-07-29 16:07:00,
2013-07-29 12:12:00,83.9,66.4,30.06,West,278,0.0,222.8,56,1.97,,,0.01,VWS V14.01,2013-07-29 16:12:00,
2013-07-29 12:17:00,84.3,64.9,30.05,West,278,0.0,222.8,52,1.97,,,0.01,VWS V14.01,2013-07-29 16:17:00,
2013-07-29 12:23:00,84.3,65.9,30.05,West,278,0.0,222.8,54,1.97,,,0.01,VWS V14.01,2013-07-29 16:23:00,
2013-07-29 12:28:00,85.0,65.3,30.06,West,278,0.0,222.8,52,1.97,,,0.01,VWS V14.01,2013-07-29 16:28:00,
2013-07-29 12:33:00,85.3,65.2,30.05,West,278,0.0,222.8,51,1.97,,,0.01,VWS V14.01,2013-07-29 16:33:00,
2013-07-29 12:39:00,85.7,65.2,30.05,SW,229,0.0,222.8,50,1.97,,,0.01,VWS V14.01,2013-07-29 16:39:00,
2013-07-29 12:44:00,86.2,66.5,30.06,SW,229,0.0,222.8,52,1.97,,,0.01,VWS V14.01,2013-07-29 16:44:00,
2013-07-29 12:49:00,86.6,64.7,30.05,SW,229,0.0,222.8,48,1.97,,,0.01,VWS V14.01,2013-07-29 16:49:00,
2013-07-29 12:55:00,86.8,64.7,30.05,SE,139,0.0,222.8,48,1.97,,,0.01,VWS V14.01,2013-07-29 16:55:00,
2013-07-29 13:00:00,86.8,65.1,30.05,SE,139,0.0,222.8,48,1.97,,,0.01,VWS V14.01,2013-07-29 17:00:00,
2013-07-29 13:06:00,87.1,65.4,30.05,SE,139,0.0,222.8,49,1.97,,,0.01,VWS V14.01,2013-07-29 17:06:00,
2013-07-29 13:11:00,87.3,65.3,30.05,SE,139,0.0,222.8,48,1.97,,,0.01,VWS V14.01,2013-07-29 17:11:00,
2013-07-29 13:17:00,87.1,64.0,30.05,SE,139,0.0,222.8,46,1.97,,,0.01,VWS V14.01,2013-07-29 17:17:00,
2013-07-29 13:22:00,86.8,63.1,30.05,SSW,194,4.3,222.8,45,1.97,,,0.01,VWS V14.01,2013-07-29 17:22:00,
2013-07-29 13:27:00,86.3,63.3,30.05,North,359,0.0,222.8,46,1.97,,,0.01,VWS V14.01,2013-07-29 17:27:00,
2013-07-29 13:33:00,86.3,63.7,30.05,North,359,0.0,222.8,47,1.97,,,0.01,VWS V14.01,2013-07-29 17:33:00,
2013-07-29 13:38:00,86.3,64.0,30.05,WNW,284,0.0,222.8,47,1.97,,,0.01,VWS V14.01,2013-07-29 17:38:00,
2013-07-29 13:43:00,86.4,62.1,30.05,WNW,285,0.0,222.8,44,1.97,,,0.01,VWS V14.01,2013-07-29 17:43:00,
2013-07-29 13:49:00,86.5,64.6,30.05,WNW,285,0.0,222.8,48,1.97,,,0.01,VWS V14.01,2013-07-29 17:49:00,
2013-07-29 13:54:00,85.7,63.4,30.05,WNW,285,0.0,222.8,47,1.97,,,0.01,VWS V14.01,2013-07-29 17:54:00,
2013-07-29 14:00:00,85.2,62.9,30.05,WNW,285,0.0,222.8,47,1.97,,,0.01,VWS V14.01,2013-07-29 18:00:00,
2013-07-29 14:05:00,84.4,63.6,30.05,WNW,285,0.0,222.8,50,1.97,,,0.01,VWS V14.01,2013-07-29 18:05:00,
2013-07-29 14:11:00,84.3,63.5,30.05,WNW,285,0.0,222.8,50,1.97,,,0.01,VWS V14.01,2013-07-29 18:11:00,
2013-07-29 14:17:00,83.3,64.2,30.05,WNW,285,0.0,222.8,53,1.97,,,0.01,VWS V14.01,2013-07-29 18:17:00,
2013-07-29 14:23:00,82.5,63.8,30.05,WSW,245,0.0,222.8,53,1.97,,,0.01,VWS V14.01,2013-07-29 18:23:00,
2013-07-29 14:28:00,82.5,64.5,30.05,WSW,245,0.0,222.8,55,1.97,,,0.01,VWS V14.01,2013-07-29 18:28:00,
2013-07-29 14:34:00,83.4,64.9,30.05,SSW,201,0.0,222.8,54,1.97,,,0.01,VWS V14.01,2013-07-29 18:34:00,
2013-07-29 14:39:00,84.6,63.2,30.05,West,280,0.0,222.8,49,1.97,,,0.01,VWS V14.01,2013-07-29 18:39:00,
2013-07-29 14:45:00,85.1,64.6,30.05,NW,315,0.0,222.8,50,1.97,,,0.01,VWS V14.01,2013-07-29 18:45:00,
2013-07-29 14:54:00,85.5,64.0,30.05,WNW,285,0.0,222.8,49,1.97,,,0.01,VWS V14.01,2013-07-29 18:54:00,
2013-07-29 14:59:00,85.9,64.8,30.05,WNW,285,0.0,222.8,50,1.97,,,0.01,VWS V14.01,2013-07-29 18:59:00,
2013-07-29 15:05:00,85.6,63.0,30.05,NNE,15,0.0,222.8,47,1.97,,,0.01,VWS V14.01,2013-07-29 19:05:00,
2013-07-29 15:11:00,85.8,63.7,30.05,NNW,339,3.4,222.8,48,1.97,,,0.01,VWS V14.01,2013-07-29 19:11:00,
2013-07-29 15:16:00,86.2,63.1,30.05,SE,146,0.0,222.8,46,1.97,,,0.01,VWS V14.01,2013-07-29 19:16:00,
2013-07-29 15:22:00,86.9,63.9,30.05,SE,146,0.0,222.8,46,1.97,,,0.01,VWS V14.01,2013-07-29 19:22:00,
2013-07-29 15:28:00,87.1,63.6,30.05,NW,307,0.0,222.8,46,1.97,,,0.01,VWS V14.01,2013-07-29 19:28:00,
2013-07-29 15:34:00,86.4,63.2,30.05,NW,307,0.0,222.8,46,1.97,,,0.01,VWS V14.01,2013-07-29 19:34:00,
2013-07-29 15:40:00,85.5,62.5,30.05,WSW,256,0.0,222.8,46,1.97,,,0.01,VWS V14.01,2013-07-29 19:40:00,
2013-07-29 15:45:00,84.7,63.3,30.05,NNE,20,0.0,222.8,49,1.97,,,0.01,VWS V14.01,2013-07-29 19:45:00,
2013-07-29 15:51:00,84.1,62.5,30.05,NNW,333,0.0,0.0,48,1.97,,,0.01,VWS V14.01,2013-07-29 19:51:00,
2013-07-29 15:54:00,84.1,62.5,30.05,NNW,333,0.0,0.0,48,1.97,,,0.01,VWS V14.01,2013-07-29 19:54:00,
2013-07-29 15:55:00,84.3,62.3,30.05,NNW,333,0.0,0.0,48,0.00,,,0.01,VWS V14.01,2013-07-29 19:55:00,
2013-07-29 15:56:00,84.3,62.1,30.05,NW,323,5.7,6.2,47,0.00,,,0.01,VWS V14.01,2013-07-29 19:56:00,
2013-07-29 15:57:00,84.6,62.8,30.05,WSW,252,0.0,0.0,48,0.00,,,0.01,VWS V14.01,2013-07-29 19:57:00,
2013-07-29 15:58:00,84.5,62.3,30.05,WSW,252,0.0,7.5,47,0.00,,,0.01,VWS V14.01,2013-07-29 19:58:00,
2013-07-29 15:59:00,84.5,62.6,30.05,WSW,252,0.0,0.0,48,0.00,,,0.01,VWS V14.01,2013-07-29 19:59:00,
2013-07-29 16:00:00,84.6,62.8,30.05,WSW,252,0.0,0.0,48,0.00,,,0.01,VWS V14.01,2013-07-29 20:00:00,
2013-07-29 16:01:00,85.0,62.4,30.05,WSW,252,0.0,0.0,47,0.00,,,0.01,VWS V14.01,2013-07-29 20:01:00,
2013-07-29 16:02:00,85.4,61.5,30.05,NW,314,0.0,5.2,45,0.00,,,0.01,VWS V14.01,2013-07-29 20:02:00,
2013-07-29 16:03:00,85.3,61.9,30.05,WNW,288,0.0,4.8,46,0.00,,,0.01,VWS V14.01,2013-07-29 20:03:00,
2013-07-29 16:04:00,85.3,61.3,30.05,WSW,248,0.0,7.1,45,0.00,,,0.01,VWS V14.01,2013-07-29 20:04:00,
2013-07-29 16:05:00,85.4,61.5,30.05,NW,314,0.0,5.2,45,0.00,,,0.01,VWS V14.01,2013-07-29 20:05:00,
2013-07-29 16:06:00,85.5,61.6,30.05,NW,314,0.0,2.7,45,0.00,,,0.01,VWS V14.01,2013-07-29 20:06:00,
2013-07-29 16:07:00,85.5,60.9,30.05,NW,314,0.0,0.0,44,0.00,,,0.01,VWS V14.01,2013-07-29 20:07:00,
2013-07-29 16:08:00,84.6,61.1,30.05,NNW,328,0.0,0.0,45,0.00,,,0.01,VWS V14.01,2013-07-29 20:08:00,
2013-07-29 16:09:00,85.3,61.3,30.05,NW,314,0.0,0.0,45,0.00,,,0.01,VWS V14.01,2013-07-29 20:09:00,
2013-07-29 16:10:00,85.0,61.0,30.05,WNW,288,4.3,5.2,45,0.00,,,0.01,VWS V14.01,2013-07-29 20:10:00,
2013-07-29 16:11:00,84.6,61.1,30.05,NNW,328,0.0,4.3,45,0.00,,,0.01,VWS V14.01,2013-07-29 20:11:00,
2013-07-29 16:12:00,84.6,61.4,30.05,NNW,328,0.0,0.0,46,0.00,,,0.01,VWS V14.01,2013-07-29 20:12:00,
2013-07-29 16:13:00,84.5,61.7,30.05,North,3,0.0,0.0,46,0.00,,,0.01,VWS V14.01,2013-07-29 20:13:00,
2013-07-29 16:14:00,84.5,60.9,30.05,North,359,1.8,5.1,45,0.00,,,0.01,VWS V14.01,2013-07-29 20:14:00,
2013-07-29 16:15:00,84.4,61.3,30.05,North,3,0.0,3.4,46,0.00,,,0.01,VWS V14.01,2013-07-29 20:15:00,
2013-07-29 16:16:00,84.5,61.7,30.05,North,3,0.0,0.0,46,0.00,,,0.01,VWS V14.01,2013-07-29 20:16:00,
2013-07-29 16:17:00,84.5,61.7,30.05,West,259,0.0,6.2,46,0.00,,,0.01,VWS V14.01,2013-07-29 20:17:00,
2013-07-29 16:18:00,85.1,61.9,30.05,WSW,248,0.0,5.7,46,0.00,,,0.01,VWS V14.01,2013-07-29 20:18:00,
2013-07-29 16:19:00,85.0,62.0,30.05,North,6,5.1,7.5,46,0.00,,,0.01,VWS V14.01,2013-07-29 20:19:00,
2013-07-29 16:20:00,85.0,62.0,30.05,WSW,248,5.7,9.4,46,0.00,,,0.01,VWS V14.01,2013-07-29 20:20:00,
2013-07-29 16:21:00,85.1,61.9,30.05,WSW,248,0.0,5.7,46,0.00,,,0.01,VWS V14.01,2013-07-29 20:21:00,
2013-07-29 16:22:00,85.2,61.7,30.05,WSW,248,0.0,0.0,45,0.00,,,0.01,VWS V14.01,2013-07-29 20:22:00,
2013-07-29 16:23:00,85.6,61.1,30.05,North,0,0.0,5.6,44,0.00,,,0.01,VWS V14.01,2013-07-29 20:23:00,
2013-07-29 16:24:00,85.2,61.1,30.05,WNW,291,4.3,7.9,44,0.00,,,0.01,VWS V14.01,2013-07-29 20:24:00,
2013-07-29 16:25:00,85.5,61.6,30.05,NNE,18,0.0,6.1,45,0.00,,,0.01,VWS V14.01,2013-07-29 20:25:00,
2013-07-29 16:26:00,85.6,61.7,30.05,NW,316,3.4,5.7,45,0.00,,,0.01,VWS V14.01,2013-07-29 20:26:00,
2013-07-29 16:27:00,85.7,61.5,30.05,North,0,0.0,5.6,44,0.00,,,0.01,VWS V14.01,2013-07-29 20:27:00,
2013-07-29 16:28:00,85.8,61.0,30.05,North,0,0.0,0.0,43,0.00,,,0.01,VWS V14.01,2013-07-29 20:28:00,
2013-07-29 16:29:00,85.6,61.2,30.05,North,359,0.0,5.0,44,0.00,,,0.01,VWS V14.01,2013-07-29 20:29:00,
2013-07-29 16:30:00,85.7,61.0,30.05,WNW,292,4.7,7.0,44,0.00,,,0.01,VWS V14.01,2013-07-29 20:30:00,
2013-07-29 16:31:00,85.6,61.0,30.05,WNW,292,0.0,4.7,44,0.00,,,0.01,VWS V14.01,2013-07-29 20:31:00,
2013-07-29 16:32:00,85.6,61.2,30.05,North,359,0.0,5.0,44,0.00,,,0.01,VWS V14.01,2013-07-29 20:32:00,
2013-07-29 16:33:00,85.5,60.9,30.05,NNE,13,3.2,3.5,44,0.00,,,0.01,VWS V14.01,2013-07-29 20:33:00,
2013-07-29 16:34:00,85.5,60.9,30.05,SE,146,0.0,0.0,44,0.00,,,0.01,VWS V14.01,2013-07-29 20:34:00,
2013-07-29 16:35:00,85.6,61.3,30.05,NNE,13,0.0,0.0,44,0.00,,,0.01,VWS V14.01,2013-07-29 20:35:00,
2013-07-29 16:36:00,85.5,60.9,30.05,SE,146,0.0,4.2,44,0.00,,,0.01,VWS V14.01,2013-07-29 20:36:00,
2013-07-29 16:37:00,85.5,61.0,30.05,SE,146,0.0,0.0,44,0.00,,,0.01,VWS V14.01,2013-07-29 20:37:00,
2013-07-29 16:38:00,85.5,61.1,30.05,SE,146,0.0,5.5,44,0.00,,,0.01,VWS V14.01,2013-07-29 20:38:00,
2013-07-29 16:39:00,85.6,60.6,30.05,WNW,288,0.0,0.0,43,0.00,,,0.01,VWS V14.01,2013-07-29 20:39:00,
2013-07-29 16:40:00,85.5,60.5,30.05,West,260,0.0,0.0,43,0.00,,,0.01,VWS V14.01,2013-07-29 20:40:00,
2013-07-29 16:41:00,85.4,59.6,30.05,NW,309,0.0,4.7,42,0.00,,,0.01,VWS V14.01,2013-07-29 20:41:00,
2013-07-29 16:42:00,85.5,60.3,30.05,WNW,288,0.0,3.1,43,0.00,,,0.01,VWS V14.01,2013-07-29 20:42:00,
2013-07-29 16:43:00,85.6,60.5,30.05,WNW,288,0.0,0.0,43,0.00,,,0.01,VWS V14.01,2013-07-29 20:43:00,
2013-07-29 16:44:00,85.5,60.7,30.05,North,356,5.1,5.1,43,0.00,,,0.01,VWS V14.01,2013-07-29 20:44:00,
2013-07-29 16:45:00,85.7,60.7,30.05,North,7,0.0,3.4,43,0.00,,,0.01,VWS V14.01,2013-07-29 20:45:00,
2013-07-29 16:46:00,85.7,60.8,30.05,NNE,22,0.0,0.0,43,0.00,,,0.01,VWS V14.01,2013-07-29 20:46:00,
2013-07-29 16:47:00,85.7,60.7,30.05,NNE,32,0.0,2.1,43,0.00,,,0.01,VWS V14.01,2013-07-29 20:47:00,
2013-07-29 16:48:00,85.7,60.7,30.05,North,7,0.0,3.4,43,0.00,,,0.01,VWS V14.01,2013-07-29 20:48:00,
2013-07-29 16:49:00,85.9,60.6,30.05,North,7,0.0,0.0,43,0.00,,,0.01,VWS V14.01,2013-07-29 20:49:00,
2013-07-29 16:50:00,86.2,60.3,30.05,North,7,0.0,0.0,42,0.00,,,0.01,VWS V14.01,2013-07-29 20:50:00,
2013-07-29 16:51:00,86.1,60.4,30.05,North,7,0.0,0.0,42,0.00,,,0.01,VWS V14.01,2013-07-29 20:51:00,
2013-07-29 16:52:00,86.2,60.2,30.05,North,7,0.0,0.0,42,0.00,,,0.01,VWS V14.01,2013-07-29 20:52:00,
2013-07-29 16:53:00,86.2,60.3,30.05,North,7,0.0,0.0,42,0.00,,,0.01,VWS V14.01,2013-07-29 20:53:00,
2013-07-29 16:54:00,86.2,60.6,30.05,NW,314,4.2,4.8,42,0.00,,,0.01,VWS V14.01,2013-07-29 20:54:00,
2013-07-29 16:55:00,85.6,60.2,30.05,West,260,0.0,5.1,42,0.00,,,0.01,VWS V14.01,2013-07-29 20:55:00,
2013-07-29 16:56:00,85.9,60.8,30.05,WNW,291,0.0,3.3,43,0.00,,,0.01,VWS V14.01,2013-07-29 20:56:00,
2013-07-29 16:57:00,85.7,60.5,30.05,South,183,0.0,7.0,43,0.00,,,0.01,VWS V14.01,2013-07-29 20:57:00,
2013-07-29 16:58:00,85.6,60.2,30.05,NW,309,5.1,5.2,42,0.00,,,0.01,VWS V14.01,2013-07-29 20:58:00,
2013-07-29 16:59:00,85.5,60.1,30.05,NNE,17,4.4,5.5,42,0.00,,,0.01,VWS V14.01,2013-07-29 20:59:00,
2013-07-29 17:00:00,85.0,59.7,30.05,WNW,298,0.0,0.0,42,0.00,,,0.01,VWS V14.01,2013-07-29 21:00:00,
2013-07-29 17:01:00,85.2,58.8,30.05,WNW,298,0.0,5.0,41,0.00,,,0.01,VWS V14.01,2013-07-29 21:01:00,
2013-07-29 17:02:00,85.1,59.0,30.05,WNW,298,0.0,0.0,41,0.00,,,0.01,VWS V14.01,2013-07-29 21:02:00,
2013-07-29 17:03:00,85.0,59.4,30.05,WNW,298,0.0,0.0,42,0.00,,,0.01,VWS V14.01,2013-07-29 21:03:00,
2013-07-29 17:04:00,85.0,59.7,30.05,WNW,298,0.0,0.0,42,0.00,,,0.01,VWS V14.01,2013-07-29 21:04:00,
2013-07-29 17:05:00,85.0,59.6,30.05,WNW,298,0.0,0.0,42,0.00,,,0.01,VWS V14.01,2013-07-29 21:05:00,
2013-07-29 17:06:00,85.2,59.9,30.05,NNW,340,0.0,4.9,42,0.00,,,0.01,VWS V14.01,2013-07-29 21:06:00,
2013-07-29 17:07:00,85.3,60.7,30.05,WNW,302,0.0,0.0,44,0.00,,,0.01,VWS V14.01,2013-07-29 21:07:00,
2013-07-29 17:08:00,85.3,60.5,30.05,WNW,302,0.0,0.0,43,0.00,,,0.01,VWS V14.01,2013-07-29 21:08:00,
2013-07-29 17:09:00,85.2,59.9,30.05,NNW,340,0.0,4.9,42,0.00,,,0.01,VWS V14.01,2013-07-29 21:09:00,
2013-07-29 17:10:00,84.8,58.6,30.05,NNW,340,0.0,0.0,41,0.00,,,0.01,VWS V14.01,2013-07-29 21:10:00,
2013-07-29 17:11:00,84.0,58.9,30.05,WNW,295,0.0,4.5,43,0.00,,,0.01,VWS V14.01,2013-07-29 21:11:00,
2013-07-29 17:12:00,84.4,59.0,30.05,NW,315,3.0,3.0,42,0.00,,,0.01,VWS V14.01,2013-07-29 21:12:00,
2013-07-29 17:13:00,84.2,58.8,30.05,NW,315,0.0,3.0,42,0.00,,,0.01,VWS V14.01,2013-07-29 21:13:00,
2013-07-29 17:14:00,84.0,58.9,30.05,WNW,295,0.0,4.5,43,0.00,,,0.01,VWS V14.01,2013-07-29 21:14:00,
2013-07-29 17:15:00,83.7,59.2,30.05,WNW,295,0.0,0.0,44,0.00,,,0.01,VWS V14.01,2013-07-29 21:15:00,
2013-07-29 17:16:00,83.0,58.5,30.05,West,281,0.0,0.0,43,0.00,,,0.01,VWS V14.01,2013-07-29 21:16:00,
2013-07-29 17:17:00,83.4,59.0,30.05,WNW,295,0.0,0.0,44,0.00,,,0.01,VWS V14.01,2013-07-29 21:17:00,
2013-07-29 17:18:00,83.4,59.2,30.05,West,281,0.0,4.7,44,0.00,,,0.01,VWS V14.01,2013-07-29 21:18:00,
2013-07-29 17:19:00,83.0,58.5,30.05,West,281,0.0,0.0,43,0.00,,,0.01,VWS V14.01,2013-07-29 21:19:00,
2013-07-29 17:20:00,83.1,58.7,30.05,West,281,0.0,0.0,44,0.00,,,0.01,VWS V14.01,2013-07-29 21:20:00,
2013-07-29 17:21:00,82.7,57.7,30.05,NE,41,0.0,5.6,43,0.00,,,0.01,VWS V14.01,2013-07-29 21:21:00,
2013-07-29 17:22:00,83.2,58.7,30.05,West,281,2.5,2.5,44,0.00,,,0.01,VWS V14.01,2013-07-29 21:22:00,
2013-07-29 17:23:00,82.9,58.1,30.05,North,359,4.8,6.6,43,0.00,,,0.01,VWS V14.01,2013-07-29 21:23:00,
2013-07-29 17:24:00,82.7,57.7,30.05,NE,41,0.0,5.6,43,0.00,,,0.01,VWS V14.01,2013-07-29 21:24:00,
2013-07-29 17:25:00,82.9,58.0,30.05,NE,41,0.0,0.0,43,0.00,,,0.01,VWS V14.01,2013-07-29 21:25:00,
2013-07-29 17:26:00,83.3,58.6,30.05,West,271,0.0,3.1,43,0.00,,,0.01,VWS V14.01,2013-07-29 21:26:00,
2013-07-29 17:27:00,83.0,57.8,30.05,West,276,0.0,7.8,42,0.00,,,0.01,VWS V14.01,2013-07-29 21:27:00,
2013-07-29 17:28:00,83.1,57.9,30.05,East,80,3.1,3.4,42,0.00,,,0.01,VWS V14.01,2013-07-29 21:28:00,
2013-07-29 17:29:00,83.3,58.6,30.05,West,271,0.0,3.1,43,0.00,,,0.01,VWS V14.01,2013-07-29 21:29:00,
2013-07-29 17:30:00,83.4,58.7,30.05,West,263,0.0,5.9,43,0.00,,,0.01,VWS V14.01,2013-07-29 21:30:00,
2013-07-29 17:31:00,83.6,58.8,30.05,West,263,0.0,0.0,43,0.00,,,0.01,VWS V14.01,2013-07-29 21:31:00,
2013-07-29 17:32:00,84.1,59.2,30.05,West,263,0.0,0.0,43,0.00,,,0.01,VWS V14.01,2013-07-29 21:32:00,
2013-07-29 17:33:00,83.9,58.5,30.05,West,263,0.0,0.0,42,0.00,,,0.01,VWS V14.01,2013-07-29 21:33:00,
2013-07-29 17:34:00,84.1,58.8,30.05,West,263,0.0,3.0,42,0.00,,,0.01,VWS V14.01,2013-07-29 21:34:00,
2013-07-29 17:35:00,84.1,59.2,30.05,West,263,0.0,0.0,43,0.00,,,0.01,VWS V14.01,2013-07-29 21:35:00,
2013-07-29 17:36:00,84.4,59.5,30.05,West,263,0.0,0.0,43,0.00,,,0.01,VWS V14.01,2013-07-29 21:36:00,
2013-07-29 17:37:00,85.1,59.8,30.05,West,263,0.0,0.0,42,0.00,,,0.01,VWS V14.01,2013-07-29 21:37:00,
2013-07-29 17:38:00,84.7,59.4,30.05,West,263,2.1,2.1,42,0.00,,,0.01,VWS V14.01,2013-07-29 21:38:00,
2013-07-29 17:39:00,84.8,59.5,30.05,West,263,0.0,2.1,42,0.00,,,0.01,VWS V14.01,2013-07-29 21:39:00,
2013-07-29 17:40:00,85.1,59.8,30.05,West,263,0.0,0.0,42,0.00,,,0.01,VWS V14.01,2013-07-29 21:40:00,
2013-07-29 17:41:00,85.4,60.1,30.05,West,263,0.0,0.0,43,0.00,,,0.01,VWS V14.01,2013-07-29 21:41:00,
2013-07-29 17:42:00,86.5,59.5,30.05,West,263,0.0,0.0,40,0.00,,,0.01,VWS V14.01,2013-07-29 21:42:00,
2013-07-29 17:43:00,86.0,60.6,30.05,West,263,0.0,0.0,42,0.00,,,0.01,VWS V14.01,2013-07-29 21:43:00,
2013-07-29 17:44:00,86.3,60.1,30.05,West,263,0.0,0.0,41,0.00,,,0.01,VWS V14.01,2013-07-29 21:44:00,
2013-07-29 17:45:00,86.5,59.8,30.05,West,263,0.0,0.0,41,0.00,,,0.01,VWS V14.01,2013-07-29 21:45:00,
2013-07-29 17:46:00,86.4,59.6,30.05,West,263,0.0,0.0,40,0.00,,,0.01,VWS V14.01,2013-07-29 21:46:00,
2013-07-29 17:47:00,86.4,60.3,30.05,West,263,0.0,0.0,42,0.00,,,0.01,VWS V14.01,2013-07-29 21:47:00,
2013-07-29 17:48:00,86.3,60.5,30.05,West,263,0.0,0.0,42,0.00,,,0.01,VWS V14.01,2013-07-29 21:48:00,
2013-07-29 17:49:00,86.2,60.8,30.05,West,263,0.0,0.0,42,0.00,,,0.01,VWS V14.01,2013-07-29 21:49:00,
2013-07-29 17:50:00,86.2,60.6,30.05,West,263,0.0,0.0,42,0.00,,,0.01,VWS V14.01,2013-07-29 21:50:00,
2013-07-29 17:51:00,86.3,59.2,30.05,West,263,2.3,2.3,40,0.00,,,0.01,VWS V14.01,2013-07-29 21:51:00,
2013-07-29 17:52:00,86.3,57.1,30.05,NNE,13,0.0,3.4,37,0.00,,,0.01,VWS V14.01,2013-07-29 21:52:00,
2013-07-29 17:53:00,86.4,58.4,30.05,West,263,0.0,0.0,39,0.00,,,0.01,VWS V14.01,2013-07-29 21:53:00,
2013-07-29 17:54:00,86.3,58.0,30.05,West,263,0.0,1.9,38,0.00,,,0.01,VWS V14.01,2013-07-29 21:54:00,
2013-07-29 17:55:00,86.2,57.6,30.05,West,263,0.0,0.0,38,0.00,,,0.01,VWS V14.01,2013-07-29 21:55:00,
2013-07-29 17:56:00,86.2,57.5,30.05,NNE,13,0.0,3.4,38,0.00,,,0.01,VWS V14.01,2013-07-29 21:56:00,
2013-07-29 17:57:00,86.0,57.3,30.05,NNE,13,3.5,3.5,38,0.00,,,0.01,VWS V14.01,2013-07-29 21:57:00,
2013-07-29 17:58:00,85.4,57.4,30.05,South,187,3.4,4.7,39,0.00,,,0.01,VWS V14.01,2013-07-29 21:58:00,
2013-07-29 17:59:00,85.6,56.5,30.05,WNW,292,7.4,7.4,37,0.00,,,0.01,VWS V14.01,2013-07-29 21:59:00,
2013-07-29 18:00:00,85.5,57.5,30.05,South,187,0.0,7.4,39,0.00,,,0.01,VWS V14.01,2013-07-29 22:00:00,
2013-07-29 18:01:00,85.4,57.4,30.05,South,187,3.4,4.7,39,0.00,,,0.01,VWS V14.01,2013-07-29 22:01:00,
2013-07-29 18:02:00,85.3,57.3,30.05,NW,315,0.0,4.8,39,0.00,,,0.01,VWS V14.01,2013-07-29 22:02:00,
2013-07-29 18:03:00,85.1,57.1,30.05,NW,315,0.0,0.0,39,0.00,,,0.01,VWS V14.01,2013-07-29 22:03:00,
2013-07-29 18:04:00,85.2,56.4,30.05,NW,315,0.0,0.0,38,0.00,,,0.01,VWS V14.01,2013-07-29 22:04:00,
2013-07-29 18:05:00,85.0,56.9,30.05,NW,315,0.0,0.0,38,0.00,,,0.01,VWS V14.01,2013-07-29 22:05:00,
2013-07-29 18:06:00,85.1,57.1,30.05,NW,315,0.0,0.0,39,0.00,,,0.01,VWS V14.01,2013-07-29 22:06:00,
2013-07-29 18:07:00,84.8,57.0,30.05,NW,315,0.0,2.3,39,0.00,,,0.01,VWS V14.01,2013-07-29 22:07:00,
2013-07-29 18:08:00,84.5,57.0,30.06,NW,315,0.0,0.0,39,0.00,,,0.01,VWS V14.01,2013-07-29 22:08:00,
2013-07-29 18:09:00,84.7,57.1,30.05,NW,315,0.0,0.0,39,0.00,,,0.01,VWS V14.01,2013-07-29 22:09:00,
2013-07-29 18:10:00,84.6,57.2,30.05,NW,315,0.0,0.0,39,0.00,,,0.01,VWS V14.01,2013-07-29 22:10:00,
2013-07-29 18:11:00,84.5,57.0,30.06,NW,315,0.0,0.0,39,0.00,,,0.01,VWS V14.01,2013-07-29 22:11:00,
2013-07-29 18:12:00,84.4,56.9,30.05,NW,315,0.0,0.0,39,0.00,,,0.01,VWS V14.01,2013-07-29 22:12:00,
2013-07-29 18:13:00,84.1,57.1,30.05,NW,315,0.0,0.0,40,0.00,,,0.01,VWS V14.01,2013-07-29 22:13:00,
2013-07-29 18:14:00,83.5,56.5,30.05,NW,315,0.0,0.0,40,0.00,,,0.01,VWS V14.01,2013-07-29 22:14:00,
2013-07-29 18:15:00,83.8,57.2,30.05,NW,315,0.0,0.0,40,0.00,,,0.01,VWS V14.01,2013-07-29 22:15:00,
2013-07-29 18:16:00,83.6,56.7,30.05,NW,315,0.0,0.0,40,0.00,,,0.01,VWS V14.01,2013-07-29 22:16:00,
2013-07-29 18:17:00,83.5,56.5,30.05,NW,315,0.0,0.0,40,0.00,,,0.01,VWS V14.01,2013-07-29 22:17:00,
2013-07-29 18:18:00,83.1,56.4,30.05,NW,315,0.0,0.0,40,0.00,,,0.01,VWS V14.01,2013-07-29 22:18:00,
2013-07-29 18:19:00,82.4,56.9,30.05,WNW,285,0.0,0.0,42,0.00,,,0.01,VWS V14.01,2013-07-29 22:19:00,
2013-07-29 18:20:00,82.7,56.6,30.05,WNW,285,0.0,3.0,41,0.00,,,0.01,VWS V14.01,2013-07-29 22:20:00,
2013-07-29 18:21:00,82.5,56.8,30.05,WNW,285,0.0,0.0,42,0.00,,,0.01,VWS V14.01,2013-07-29 22:21:00,
2013-07-29 18:22:00,82.4,56.9,30.05,WNW,285,0.0,0.0,42,0.00,,,0.01,VWS V14.01,2013-07-29 22:22:00,
2013-07-29 18:23:00,82.3,56.9,30.05,NE,46,0.0,5.2,42,0.00,,,0.01,VWS V14.01,2013-07-29 22:23:00,
2013-07-29 18:24:00,81.9,57.2,30.06,NE,46,0.0,0.0,43,0.00,,,0.01,VWS V14.01,2013-07-29 22:24:00,
2013-07-29 18:25:00,82.1,57.2,30.05,NE,46,0.0,0.0,43,0.00,,,0.01,VWS V14.01,2013-07-29 22:25:00,
2013-07-29 18:26:00,82.2,57.2,30.05,NE,46,0.0,2.5,43,0.00,,,0.01,VWS V14.01,2013-07-29 22:26:00,
2013-07-29 18:27:00,81.9,57.2,30.06,NE,46,0.0,0.0,43,0.00,,,0.01,VWS V14.01,2013-07-29 22:27:00,
2013-07-29 18:28:00,81.8,57.3,30.05,NE,46,0.0,0.0,43,0.00,,,0.01,VWS V14.01,2013-07-29 22:28:00,
2013-07-29 18:29:00,81.5,56.9,30.05,NE,46,0.0,0.0,43,0.00,,,0.01,VWS V14.01,2013-07-29 22:29:00,
2013-07-29 18:30:00,81.6,57.5,30.05,NE,46,0.0,0.0,44,0.00,,,0.01,VWS V14.01,2013-07-29 22:30:00,
2013-07-29 18:31:00,81.7,57.4,30.05,NE,46,0.0,0.0,44,0.00,,,0.01,VWS V14.01,2013-07-29 22:31:00,
2013-07-29 18:32:00,81.5,56.9,30.05,NE,46,0.0,0.0,43,0.00,,,0.01,VWS V14.01,2013-07-29 22:32:00,
2013-07-29 18:33:00,81.4,56.9,30.05,NE,46,0.0,0.0,43,0.00,,,0.01,VWS V14.01,2013-07-29 22:33:00,
2013-07-29 18:34:00,80.7,56.6,30.05,NE,46,0.0,0.0,44,0.00,,,0.01,VWS V14.01,2013-07-29 22:34:00,
2013-07-29 18:35:00,81.2,56.7,30.05,NE,46,0.0,0.0,43,0.00,,,0.01,VWS V14.01,2013-07-29 22:35:00,
2013-07-29 18:36:00,80.8,56.4,30.05,NE,46,0.0,0.0,43,0.00,,,0.01,VWS V14.01,2013-07-29 22:36:00,
2013-07-29 18:37:00,80.7,56.6,30.05,NE,46,0.0,0.0,44,0.00,,,0.01,VWS V14.01,2013-07-29 22:37:00,
2013-07-29 18:38:00,80.7,56.8,30.06,NE,46,0.0,0.0,44,0.00,,,0.01,VWS V14.01,2013-07-29 22:38:00,
2013-07-29 18:39:00,80.2,57.1,30.06,NE,46,0.0,0.0,45,0.00,,,0.01,VWS V14.01,2013-07-29 22:39:00,
2013-07-29 18:40:00,80.3,57.5,30.06,NE,46,0.0,0.0,46,0.00,,,0.01,VWS V14.01,2013-07-29 22:40:00,
2013-07-29 18:41:00,80.4,57.8,30.06,NE,46,0.0,0.0,46,0.00,,,0.01,VWS V14.01,2013-07-29 22:41:00,
2013-07-29 18:42:00,80.3,57.2,30.06,NE,46,0.0,0.0,45,0.00,,,0.01,VWS V14.01,2013-07-29 22:42:00,
2013-07-29 18:43:00,80.2,56.2,30.06,North,359,3.5,3.5,44,0.00,,,0.01,VWS V14.01,2013-07-29 22:43:00,
2013-07-29 18:44:00,79.7,56.5,30.06,North,359,0.0,0.0,45,0.00,,,0.01,VWS V14.01,2013-07-29 22:44:00,
2013-07-29 18:45:00,80.0,56.7,30.06,North,359,0.0,0.0,45,0.00,,,0.01,VWS V14.01,2013-07-29 22:45:00,
2013-07-29 18:46:00,79.9,56.6,30.06,North,359,0.0,0.0,45,0.00,,,0.01,VWS V14.01,2013-07-29 22:46:00,
2013-07-29 18:47:00,79.8,56.7,30.06,North,359,0.0,0.0,45,0.00,,,0.01,VWS V14.01,2013-07-29 22:47:00,
2013-07-29 18:48:00,79.4,56.5,30.06,North,359,0.0,0.0,45,0.00,,,0.01,VWS V14.01,2013-07-29 22:48:00,
2013-07-29 18:49:00,79.1,56.9,30.06,North,359,0.0,0.0,47,0.00,,,0.01,VWS V14.01,2013-07-29 22:49:00,
2013-07-29 18:50:00,79.4,56.8,30.06,North,359,0.0,0.0,46,0.00,,,0.01,VWS V14.01,2013-07-29 22:50:00,
2013-07-29 18:51:00,79.2,57.0,30.06,North,359,0.0,0.0,46,0.00,,,0.01,VWS V14.01,2013-07-29 22:51:00,
2013-07-29 18:52:00,79.2,57.0,30.06,North,359,0.0,0.0,46,0.00,,,0.01,VWS V14.01,2013-07-29 22:52:00,
2013-07-29 18:53:00,79.1,57.0,30.06,North,359,0.0,0.0,47,0.00,,,0.01,VWS V14.01,2013-07-29 22:53:00,
2013-07-29 18:54:00,78.7,56.4,30.06,ENE,70,0.0,0.0,46,0.00,,,0.01,VWS V14.01,2013-07-29 22:54:00,
2013-07-29 18:55:00,78.9,57.2,30.06,ENE,70,0.0,4.7,47,0.00,,,0.01,VWS V14.01,2013-07-29 22:55:00,
2013-07-29 18:56:00,78.8,57.1,30.06,ENE,70,0.0,0.0,47,0.00,,,0.01,VWS V14.01,2013-07-29 22:56:00,
2013-07-29 18:57:00,78.7,56.6,30.06,ENE,70,0.0,0.0,47,0.00,,,0.01,VWS V14.01,2013-07-29 22:57:00,
2013-07-29 18:58:00,78.4,56.2,30.06,ENE,70,0.0,0.0,46,0.00,,,0.01,VWS V14.01,2013-07-29 22:58:00,
2013-07-29 18:59:00,78.1,56.1,30.06,ENE,70,0.0,0.0,47,0.00,,,0.01,VWS V14.01,2013-07-29 22:59:00,
2013-07-29 19:00:00,78.3,56.2,30.06,ENE,70,0.0,0.0,47,0.00,,,0.01,VWS V14.01,2013-07-29 23:00:00,
2013-07-29 19:01:00,78.3,56.4,30.07,ENE,70,0.0,0.0,47,0.00,,,0.01,VWS V14.01,2013-07-29 23:01:00,
2013-07-29 19:02:00,78.3,56.7,30.07,ENE,70,0.0,0.0,47,0.00,,,0.01,VWS V14.01,2013-07-29 23:02:00,
2013-07-29 19:03:00,78.1,56.2,30.06,ENE,70,0.0,0.0,47,0.00,,,0.01,VWS V14.01,2013-07-29 23:03:00,
2013-07-29 19:04:00,78.0,56.3,30.07,ENE,70,0.0,0.0,47,0.00,,,0.01,VWS V14.01,2013-07-29 23:04:00,
2013-07-29 19:05:00,77.8,56.3,30.07,ENE,70,0.0,0.0,48,0.00,,,0.01,VWS V14.01,2013-07-29 23:05:00,
2013-07-29 19:06:00,78.0,56.8,30.07,ENE,70,0.0,0.0,48,0.00,,,0.01,VWS V14.01,2013-07-29 23:06:00,
2013-07-29 19:07:00,77.8,56.3,30.07,ENE,70,0.0,0.0,48,0.00,,,0.01,VWS V14.01,2013-07-29 23:07:00,
2013-07-29 19:08:00,77.9,56.3,30.07,ENE,70,0.0,0.0,47,0.00,,,0.01,VWS V14.01,2013-07-29 23:08:00,
2013-07-29 19:09:00,77.8,56.0,30.07,ENE,70,0.0,0.0,47,0.00,,,0.01,VWS V14.01,2013-07-29 23:09:00,
2013-07-29 19:10:00,77.7,56.2,30.07,ENE,70,0.0,0.0,48,0.00,,,0.01,VWS V14.01,2013-07-29 23:10:00,
2013-07-29 19:11:00,77.7,56.0,30.07,ENE,70,0.0,0.0,47,0.00,,,0.01,VWS V14.01,2013-07-29 23:11:00,
2013-07-29 19:12:00,77.7,56.1,30.07,ENE,70,0.0,0.0,47,0.00,,,0.01,VWS V14.01,2013-07-29 23:12:00,
2013-07-29 19:13:00,77.5,56.0,30.07,ENE,70,0.0,0.0,48,0.00,,,0.01,VWS V14.01,2013-07-29 23:13:00,
2013-07-29 19:14:00,77.3,55.8,30.07,ENE,70,0.0,0.0,47,0.00,,,0.01,VWS V14.01,2013-07-29 23:14:00,
2013-07-29 19:15:00,77.4,56.0,30.07,ENE,70,0.0,0.0,48,0.00,,,0.01,VWS V14.01,2013-07-29 23:15:00,
2013-07-29 19:16:00,77.2,56.2,30.07,ENE,70,0.0,0.0,48,0.00,,,0.01,VWS V14.01,2013-07-29 23:16:00,
2013-07-29 19:17:00,77.2,56.0,30.07,ENE,70,0.0,0.0,48,0.00,,,0.01,VWS V14.01,2013-07-29 23:17:00,
2013-07-29 19:18:00,77.2,56.2,30.07,ENE,70,0.0,0.0,48,0.00,,,0.01,VWS V14.01,2013-07-29 23:18:00,
2013-07-29 19:19:00,77.2,56.2,30.07,ENE,70,0.0,0.0,48,0.00,,,0.01,VWS V14.01,2013-07-29 23:19:00,
2013-07-29 19:20:00,76.9,55.8,30.07,ENE,70,0.0,0.0,48,0.00,,,0.01,VWS V14.01,2013-07-29 23:20:00,
2013-07-29 19:21:00,76.7,56.1,30.07,ENE,70,0.0,0.0,49,0.00,,,0.01,VWS V14.01,2013-07-29 23:21:00,
2013-07-29 19:22:00,77.0,56.1,30.07,ENE,70,0.0,0.0,48,0.00,,,0.01,VWS V14.01,2013-07-29 23:22:00,
2013-07-29 19:23:00,76.9,56.0,30.07,ENE,70,0.0,0.0,48,0.00,,,0.01,VWS V14.01,2013-07-29 23:23:00,
2013-07-29 19:24:00,76.7,56.1,30.07,ENE,70,0.0,0.0,49,0.00,,,0.01,VWS V14.01,2013-07-29 23:24:00,
2013-07-29 19:25:00,76.8,56.2,30.07,ENE,70,0.0,0.0,49,0.00,,,0.01,VWS V14.01,2013-07-29 23:25:00,
2013-07-29 19:26:00,76.4,56.1,30.07,ENE,70,0.0,0.0,50,0.00,,,0.01,VWS V14.01,2013-07-29 23:26:00,
2013-07-29 19:27:00,76.7,56.2,30.07,ENE,70,0.0,0.0,49,0.00,,,0.01,VWS V14.01,2013-07-29 23:27:00,
2013-07-29 19:28:00,76.6,56.3,30.07,ENE,70,0.0,0.0,49,0.00,,,0.01,VWS V14.01,2013-07-29 23:28:00,
2013-07-29 19:29:00,76.6,56.3,30.07,ENE,70,0.0,0.0,50,0.00,,,0.01,VWS V14.01,2013-07-29 23:29:00,
2013-07-29 19:30:00,76.3,56.1,30.07,ENE,70,0.0,0.0,50,0.00,,,0.01,VWS V14.01,2013-07-29 23:30:00,
2013-07-29 19:31:00,76.3,56.5,30.08,ENE,70,0.0,0.0,50,0.00,,,0.01,VWS V14.01,2013-07-29 23:31:00,
2013-07-29 19:32:00,76.3,56.3,30.07,ENE,70,0.0,0.0,50,0.00,,,0.01,VWS V14.01,2013-07-29 23:32:00,
2013-07-29 19:33:00,76.4,56.5,30.07,ENE,70,0.0,0.0,50,0.00,,,0.01,VWS V14.01,2013-07-29 23:33:00,
2013-07-29 19:34:00,76.2,56.4,30.08,ENE,70,0.0,0.0,50,0.00,,,0.01,VWS V14.01,2013-07-29 23:34:00,
2013-07-29 19:35:00,76.1,56.4,30.08,ENE,70,0.0,0.0,50,0.00,,,0.01,VWS V14.01,2013-07-29 23:35:00,
2013-07-29 19:36:00,76.0,56.5,30.08,ENE,70,0.0,0.0,51,0.00,,,0.01,VWS V14.01,2013-07-29 23:36:00,
2013-07-29 19:37:00,76.2,56.5,30.08,ENE,70,0.0,0.0,51,0.00,,,0.01,VWS V14.01,2013-07-29 23:37:00,
2013-07-29 19:38:00,76.1,56.6,30.08,ENE,70,0.0,0.0,51,0.00,,,0.01,VWS V14.01,2013-07-29 23:38:00,
2013-07-29 19:39:00,76.1,56.6,30.08,ENE,70,0.0,0.0,51,0.00,,,0.01,VWS V14.01,2013-07-29 23:39:00,
2013-07-29 19:40:00,76.0,56.6,30.08,ENE,70,0.0,0.0,51,0.00,,,0.01,VWS V14.01,2013-07-29 23:40:00,
2013-07-29 19:41:00,75.9,56.6,30.08,ENE,70,0.0,0.0,51,0.00,,,0.01,VWS V14.01,2013-07-29 23:41:00,
2013-07-29 19:42:00,75.8,57.0,30.08,ENE,70,0.0,0.0,52,0.00,,,0.01,VWS V14.01,2013-07-29 23:42:00,
2013-07-29 19:43:00,76.0,57.0,30.08,ENE,70,0.0,0.0,52,0.00,,,0.01,VWS V14.01,2013-07-29 23:43:00,
2013-07-29 19:44:00,75.9,57.0,30.08,ENE,70,0.0,0.0,52,0.00,,,0.01,VWS V14.01,2013-07-29 23:44:00,
2013-07-29 19:45:00,75.8,57.0,30.08,ENE,70,0.0,0.0,52,0.00,,,0.01,VWS V14.01,2013-07-29 23:45:00,
2013-07-29 19:46:00,75.8,57.1,30.08,ENE,70,0.0,0.0,52,0.00,,,0.01,VWS V14.01,2013-07-29 23:46:00,
2013-07-29 19:47:00,75.7,57.4,30.08,ENE,70,0.0,0.0,53,0.00,,,0.01,VWS V14.01,2013-07-29 23:47:00,
2013-07-29 19:48:00,75.8,57.4,30.08,ENE,70,0.0,0.0,53,0.00,,,0.01,VWS V14.01,2013-07-29 23:48:00,
2013-07-29 19:49:00,75.8,57.4,30.08,ENE,70,0.0,0.0,53,0.00,,,0.01,VWS V14.01,2013-07-29 23:49:00,
2013-07-29 19:50:00,75.7,57.4,30.08,ENE,70,0.0,0.0,53,0.00,,,0.01,VWS V14.01,2013-07-29 23:50:00,
2013-07-29 19:51:00,75.7,57.6,30.08,ENE,70,0.0,0.0,53,0.00,,,0.01,VWS V14.01,2013-07-29 23:51:00,
2013-07-29 19:52:00,75.5,59.3,30.08,ENE,70,0.0,0.0,57,0.00,,,0.01,VWS V14.01,2013-07-29 23:52:00,
2013-07-29 19:53:00,75.6,58.6,30.08,ENE,70,0.0,0.0,56,0.00,,,0.01,VWS V14.01,2013-07-29 23:53:00,
2013-07-29 19:54:00,75.6,59.1,30.08,ENE,70,0.0,0.0,56,0.00,,,0.01,VWS V14.01,2013-07-29 23:54:00,
2013-07-29 19:55:00,75.5,59.2,30.08,ENE,70,0.0,0.0,57,0.00,,,0.01,VWS V14.01,2013-07-29 23:55:00,
2013-07-29 19:56:00,75.4,59.3,30.08,ENE,70,0.0,0.0,57,0.00,,,0.01,VWS V14.01,2013-07-29 23:56:00,
2013-07-29 19:57:00,75.2,59.9,30.08,ENE,70,0.0,0.0,59,0.00,,,0.01,VWS V14.01,2013-07-29 23:57:00,
2013-07-29 19:58:00,75.4,59.3,30.08,ENE,70,0.0,0.0,57,0.00,,,0.01,VWS V14.01,2013-07-29 23:58:00,
2013-07-29 19:59:00,75.3,59.6,30.08,ENE,70,0.0,0.0,58,0.00,,,0.01,VWS V14.01,2013-07-29 23:59:00,
2013-07-29 20:00:00,75.3,59.6,30.08,ENE,70,0.0,0.0,58,0.00,,,0.01,VWS V14.01,2013-07-30 00:00:00,
2013-07-29 20:01:00,75.1,59.9,30.08,ENE,70,0.0,0.0,59,0.00,,,0.01,VWS V14.01,2013-07-30 00:01:00,
2013-07-29 20:02:00,74.8,60.0,30.08,ENE,70,0.0,0.0,60,0.00,,,0.01,VWS V14.01,2013-07-30 00:02:00,
2013-07-29 20:03:00,75.1,60.4,30.08,ENE,70,0.0,0.0,60,0.00,,,0.01,VWS V14.01,2013-07-30 00:03:00,
2013-07-29 20:04:00,75.0,60.4,30.08,ENE,70,0.0,0.0,60,0.00,,,0.01,VWS V14.01,2013-07-30 00:04:00,
2013-07-29 20:05:00,74.9,60.3,30.08,ENE,70,0.0,0.0,60,0.00,,,0.01,VWS V14.01,2013-07-30 00:05:00,
2013-07-29 20:06:00,74.8,60.0,30.08,ENE,70,0.0,0.0,60,0.00,,,0.01,VWS V14.01,2013-07-30 00:06:00,
2013-07-29 20:07:00,74.8,60.1,30.08,ENE,70,0.0,0.0,60,0.00,,,0.01,VWS V14.01,2013-07-30 00:07:00,
2013-07-29 20:08:00,74.5,59.9,30.08,ENE,70,0.0,0.0,60,0.00,,,0.01,VWS V14.01,2013-07-30 00:08:00,
2013-07-29 20:09:00,74.6,60.0,30.08,ENE,70,0.0,0.0,60,0.00,,,0.01,VWS V14.01,2013-07-30 00:09:00,
2013-07-29 20:10:00,74.5,59.9,30.08,ENE,70,0.0,0.0,60,0.00,,,0.01,VWS V14.01,2013-07-30 00:10:00,
2013-07-29 20:11:00,74.5,59.9,30.08,ENE,70,0.0,0.0,60,0.00,,,0.01,VWS V14.01,2013-07-30 00:11:00,
2013-07-29 20:12:00,74.4,59.8,30.09,ENE,70,0.0,0.0,60,0.00,,,0.01,VWS V14.01,2013-07-30 00:12:00,
2013-07-29 20:13:00,74.1,59.4,30.09,ENE,70,0.0,0.0,60,0.00,,,0.01,VWS V14.01,2013-07-30 00:13:00,
2013-07-29 20:14:00,74.3,59.5,30.08,ENE,70,0.0,0.0,60,0.00,,,0.01,VWS V14.01,2013-07-30 00:14:00,
2013-07-29 20:15:00,74.2,59.4,30.08,ENE,70,0.0,0.0,60,0.00,,,0.01,VWS V14.01,2013-07-30 00:15:00,
2013-07-29 20:16:00,74.1,59.4,30.09,ENE,70,0.0,0.0,60,0.00,,,0.01,VWS V14.01,2013-07-30 00:16:00,
2013-07-29 20:17:00,74.1,59.6,30.09,ENE,70,0.0,0.0,60,0.00,,,0.01,VWS V14.01,2013-07-30 00:17:00,
2013-07-29 20:18:00,73.9,60.0,30.09,ENE,70,0.0,0.0,62,0.00,,,0.01,VWS V14.01,2013-07-30 00:18:00,
2013-07-29 20:19:00,74.0,59.8,30.09,ENE,70,0.0,0.0,61,0.00,,,0.01,VWS V14.01,2013-07-30 00:19:00,
2013-07-29 20:20:00,73.9,59.7,30.09,ENE,70,0.0,0.0,61,0.00,,,0.01,VWS V14.01,2013-07-30 00:20:00,
2013-07-29 20:21:00,73.9,59.9,30.09,ENE,70,0.0,0.0,62,0.00,,,0.01,VWS V14.01,2013-07-30 00:21:00,
2013-07-29 20:22:00,73.8,60.0,30.09,ENE,70,0.0,0.0,62,0.00,,,0.01,VWS V14.01,2013-07-30 00:22:00,
2013-07-29 20:23:00,73.6,60.2,30.09,ENE,70,0.0,0.0,63,0.00,,,0.01,VWS V14.01,2013-07-30 00:23:00,
2013-07-29 20:24:00,73.8,60.2,30.09,ENE,70,0.0,0.0,62,0.00,,,0.01,VWS V14.01,2013-07-30 00:24:00,
2013-07-29 20:25:00,73.7,60.2,30.09,ENE,70,0.0,0.0,63,0.00,,,0.01,VWS V14.01,2013-07-30 00:25:00,
2013-07-29 20:26:00,73.6,60.2,30.09,ENE,70,0.0,0.0,63,0.00,,,0.01,VWS V14.01,2013-07-30 00:26:00,
2013-07-29 20:27:00,73.6,60.3,30.09,ENE,70,0.0,0.0,63,0.00,,,0.01,VWS V14.01,2013-07-30 00:27:00,
2013-07-29 20:28:00,73.5,60.2,30.09,ENE,70,0.0,0.0,63,0.00,,,0.01,VWS V14.01,2013-07-30 00:28:00,
2013-07-29 20:29:00,73.3,60.2,30.09,ENE,70,0.0,0.0,64,0.00,,,0.01,VWS V14.01,2013-07-30 00:29:00,
2013-07-29 20:30:00,73.4,60.3,30.09,ENE,70,0.0,0.0,64,0.00,,,0.01,VWS V14.01,2013-07-30 00:30:00,
2013-07-29 20:31:00,73.3,60.2,30.09,ENE,70,0.0,0.0,64,0.00,,,0.01,VWS V14.01,2013-07-30 00:31:00,
2013-07-29 20:32:00,73.2,60.1,30.09,ENE,70,0.0,0.0,64,0.00,,,0.01,VWS V14.01,2013-07-30 00:32:00,
2013-07-29 20:33:00,73.1,60.0,30.09,ENE,70,0.0,0.0,63,0.00,,,0.01,VWS V14.01,2013-07-30 00:33:00,
2013-07-29 20:34:00,72.8,59.6,30.09,ENE,70,0.0,0.0,63,0.00,,,0.01,VWS V14.01,2013-07-30 00:34:00,
2013-07-29 20:35:00,73.1,59.8,30.09,ENE,70,0.0,0.0,63,0.00,,,0.01,VWS V14.01,2013-07-30 00:35:00,
2013-07-29 20:36:00,72.9,59.7,30.09,ENE,70,0.0,0.0,63,0.00,,,0.01,VWS V14.01,2013-07-30 00:36:00,
2013-07-29 20:37:00,72.8,59.6,30.09,ENE,70,0.0,0.0,63,0.00,,,0.01,VWS V14.01,2013-07-30 00:37:00,
2013-07-29 20:38:00,72.8,59.7,30.09,ENE,70,0.0,0.0,63,0.00,,,0.01,VWS V14.01,2013-07-30 00:38:00,
2013-07-29 20:39:00,72.5,59.8,30.09,ENE,70,0.0,0.0,64,0.00,,,0.01,VWS V14.01,2013-07-30 00:39:00,
2013-07-29 20:40:00,72.6,59.6,30.09,ENE,70,0.0,0.0,64,0.00,,,0.01,VWS V14.01,2013-07-30 00:40:00,
2013-07-29 20:41:00,72.6,59.7,30.09,ENE,70,0.0,0.0,64,0.00,,,0.01,VWS V14.01,2013-07-30 00:41:00,
2013-07-29 20:42:00,72.5,59.8,30.09,ENE,70,0.0,0.0,64,0.00,,,0.01,VWS V14.01,2013-07-30 00:42:00,
2013-07-29 20:43:00,72.4,59.7,30.09,ENE,70,0.0,0.0,64,0.00,,,0.01,VWS V14.01,2013-07-30 00:43:00,
2013-07-29 20:44:00,72.1,59.6,30.09,ENE,70,0.0,0.0,65,0.00,,,0.01,VWS V14.01,2013-07-30 00:44:00,
2013-07-29 20:45:00,72.3,59.7,30.09,ENE,70,0.0,0.0,64,0.00,,,0.01,VWS V14.01,2013-07-30 00:45:00,
2013-07-29 20:46:00,72.2,59.7,30.09,ENE,70,0.0,0.0,65,0.00,,,0.01,VWS V14.01,2013-07-30 00:46:00,
2013-07-29 20:47:00,72.1,59.6,30.09,ENE,70,0.0,0.0,65,0.00,,,0.01,VWS V14.01,2013-07-30 00:47:00,
2013-07-29 20:48:00,72.1,59.6,30.09,ENE,70,0.0,0.0,65,0.00,,,0.01,VWS V14.01,2013-07-30 00:48:00,
2013-07-29 20:49:00,71.7,59.6,30.09,ENE,70,0.0,0.0,66,0.00,,,0.01,VWS V14.01,2013-07-30 00:49:00,
2013-07-29 20:50:00,71.9,59.5,30.09,ENE,70,0.0,0.0,65,0.00,,,0.01,VWS V14.01,2013-07-30 00:50:00,
2013-07-29 20:51:00,71.9,59.5,30.09,ENE,70,0.0,0.0,65,0.00,,,0.01,VWS V14.01,2013-07-30 00:51:00,
2013-07-29 20:52:00,71.8,59.6,30.09,ENE,70,0.0,0.0,66,0.00,,,0.01,VWS V14.01,2013-07-30 00:52:00,
2013-07-29 20:53:00,71.7,59.7,30.09,ENE,70,0.0,0.0,66,0.00,,,0.01,VWS V14.01,2013-07-30 00:53:00,
2013-07-29 20:54:00,71.4,59.8,30.09,ENE,70,0.0,0.0,67,0.00,,,0.01,VWS V14.01,2013-07-30 00:54:00,
2013-07-29 20:55:00,71.6,59.9,30.09,ENE,70,0.0,0.0,67,0.00,,,0.01,VWS V14.01,2013-07-30 00:55:00,
2013-07-29 20:56:00,71.5,59.8,30.09,ENE,70,0.0,0.0,67,0.00,,,0.01,VWS V14.01,2013-07-30 00:56:00,
2013-07-29 20:57:00,71.5,59.8,30.09,ENE,70,0.0,0.0,67,0.00,,,0.01,VWS V14.01,2013-07-30 00:57:00,
2013-07-29 20:58:00,71.4,59.8,30.09,ENE,70,0.0,0.0,67,0.00,,,0.01,VWS V14.01,2013-07-30 00:58:00,
2013-07-29 20:59:00,71.4,59.9,30.09,ENE,70,0.0,0.0,67,0.00,,,0.01,VWS V14.01,2013-07-30 00:59:00,
2013-07-29 21:00:00,71.1,59.9,30.10,ENE,70,0.0,0.0,68,0.00,,,0.01,VWS V14.01,2013-07-30 01:00:00,
2013-07-29 21:01:00,71.2,59.9,30.09,ENE,70,0.0,0.0,67,0.00,,,0.01,VWS V14.01,2013-07-30 01:01:00,
2013-07-29 21:02:00,71.1,59.8,30.10,ENE,70,0.0,0.0,68,0.00,,,0.01,VWS V14.01,2013-07-30 01:02:00,
2013-07-29 21:03:00,71.0,59.8,30.10,ENE,70,0.0,0.0,68,0.00,,,0.01,VWS V14.01,2013-07-30 01:03:00,
2013-07-29 21:04:00,71.0,59.9,30.10,ENE,70,0.0,0.0,68,0.00,,,0.01,VWS V14.01,2013-07-30 01:04:00,
2013-07-29 21:05:00,70.7,59.7,30.10,ENE,70,0.0,0.0,68,0.00,,,0.01,VWS V14.01,2013-07-30 01:05:00,
2013-07-29 21:06:00,70.9,59.9,30.10,ENE,70,0.0,0.0,68,0.00,,,0.01,VWS V14.01,2013-07-30 01:06:00,
2013-07-29 21:07:00,70.8,59.8,30.10,ENE,70,0.0,0.0,68,0.00,,,0.01,VWS V14.01,2013-07-30 01:07:00,
2013-07-29 21:08:00,70.7,59.7,30.10,ENE,70,0.0,0.0,68,0.00,,,0.01,VWS V14.01,2013-07-30 01:08:00,
2013-07-29 21:09:00,70.7,59.8,30.10,ENE,70,0.0,0.0,68,0.00,,,0.01,VWS V14.01,2013-07-30 01:09:00,
2013-07-29 21:10:00,70.4,60.0,30.10,ENE,70,0.0,0.0,70,0.00,,,0.01,VWS V14.01,2013-07-30 01:10:00,
2013-07-29 21:11:00,70.6,60.0,30.10,ENE,70,0.0,0.0,69,0.00,,,0.01,VWS V14.01,2013-07-30 01:11:00,
2013-07-29 21:12:00,70.5,59.9,30.10,ENE,70,0.0,0.0,69,0.00,,,0.01,VWS V14.01,2013-07-30 01:12:00,
2013-07-29 21:13:00,70.5,60.0,30.10,ENE,70,0.0,0.0,70,0.00,,,0.01,VWS V14.01,2013-07-30 01:13:00,
2013-07-29 21:14:00,70.3,60.0,30.10,ENE,70,0.0,0.0,70,0.00,,,0.01,VWS V14.01,2013-07-30 01:14:00,
2013-07-29 21:15:00,70.0,59.8,30.10,ENE,70,0.0,0.0,70,0.00,,,0.01,VWS V14.01,2013-07-30 01:15:00,
2013-07-29 21:16:00,70.3,60.1,30.10,ENE,70,0.0,0.0,70,0.00,,,0.01,VWS V14.01,2013-07-30 01:16:00,
2013-07-29 21:17:00,70.2,60.0,30.10,ENE,70,0.0,0.0,70,0.00,,,0.01,VWS V14.01,2013-07-30 01:17:00,
2013-07-29 21:18:00,70.1,60.0,30.10,ENE,70,0.0,0.0,70,0.00,,,0.01,VWS V14.01,2013-07-30 01:18:00,
2013-07-29 21:19:00,70.0,59.9,30.10,ENE,70,0.0,0.0,70,0.00,,,0.01,VWS V14.01,2013-07-30 01:19:00,
2013-07-29 21:20:00,69.8,60.3,30.10,ENE,70,0.0,0.0,72,0.00,,,0.01,VWS V14.01,2013-07-30 01:20:00,
2013-07-29 21:21:00,69.9,60.0,30.10,ENE,70,0.0,0.0,71,0.00,,,0.01,VWS V14.01,2013-07-30 01:21:00,
2013-07-29 21:22:00,69.8,60.1,30.10,ENE,70,0.0,0.0,71,0.00,,,0.01,VWS V14.01,2013-07-30 01:22:00,
2013-07-29 21:23:00,69.8,60.1,30.10,ENE,70,0.0,0.0,71,0.00,,,0.01,VWS V14.01,2013-07-30 01:23:00,
2013-07-29 21:24:00,69.7,60.2,30.10,ENE,70,0.0,0.0,72,0.00,,,0.01,VWS V14.01,2013-07-30 01:24:00,
2013-07-29 21:25:00,69.6,60.4,30.10,ENE,70,0.0,0.0,73,0.00,,,0.01,VWS V14.01,2013-07-30 01:25:00,
2013-07-29 21:26:00,69.7,60.2,30.10,ENE,70,0.0,0.0,72,0.00,,,0.01,VWS V14.01,2013-07-30 01:26:00,
2013-07-29 21:27:00,69.7,60.2,30.10,ENE,70,0.0,0.0,72,0.00,,,0.01,VWS V14.01,2013-07-30 01:27:00,
2013-07-29 21:28:00,69.6,60.3,30.10,ENE,70,0.0,0.0,72,0.00,,,0.01,VWS V14.01,2013-07-30 01:28:00,
2013-07-29 21:29:00,69.6,60.5,30.10,ENE,70,0.0,0.0,73,0.00,,,0.01,VWS V14.01,2013-07-30 01:29:00,
2013-07-29 21:30:00,69.4,60.0,30.10,ENE,70,0.0,0.0,72,0.00,,,0.01,VWS V14.01,2013-07-30 01:30:00,
2013-07-29 21:31:00,69.5,60.2,30.10,ENE,70,0.0,0.0,72,0.00,,,0.01,VWS V14.01,2013-07-30 01:31:00,
2013-07-29 21:32:00,69.5,60.2,30.10,ENE,70,0.0,0.0,72,0.00,,,0.01,VWS V14.01,2013-07-30 01:32:00,
2013-07-29 21:33:00,69.4,60.0,30.10,ENE,70,0.0,0.0,72,0.00,,,0.01,VWS V14.01,2013-07-30 01:33:00,
2013-07-29 21:34:00,69.4,59.9,30.10,ENE,70,0.0,0.0,72,0.00,,,0.01,VWS V14.01,2013-07-30 01:34:00,
2013-07-29 21:35:00,69.5,60.0,30.10,ENE,70,0.0,0.0,72,0.00,,,0.01,VWS V14.01,2013-07-30 01:35:00,
2013-07-29 21:36:00,69.5,59.9,30.10,ENE,70,0.0,0.0,72,0.00,,,0.01,VWS V14.01,2013-07-30 01:36:00,
2013-07-29 21:37:00,69.4,59.8,30.11,ENE,70,0.0,0.0,72,0.00,,,0.01,VWS V14.01,2013-07-30 01:37:00,
2013-07-29 21:38:00,69.5,59.9,30.10,ENE,70,0.0,0.0,72,0.00,,,0.01,VWS V14.01,2013-07-30 01:38:00,
2013-07-29 21:39:00,69.4,59.9,30.10,ENE,70,0.0,0.0,72,0.00,,,0.01,VWS V14.01,2013-07-30 01:39:00,
2013-07-29 21:40:00,69.3,59.2,30.11,ENE,70,0.0,0.0,70,0.00,,,0.01,VWS V14.01,2013-07-30 01:40:00,
2013-07-29 21:41:00,69.4,59.8,30.10,ENE,70,0.0,0.0,72,0.00,,,0.01,VWS V14.01,2013-07-30 01:41:00,
2013-07-29 21:42:00,69.4,59.6,30.10,ENE,70,0.0,0.0,71,0.00,,,0.01,VWS V14.01,2013-07-30 01:42:00,
2013-07-29 21:43:00,69.3,59.3,30.11,ENE,70,0.0,0.0,71,0.00,,,0.01,VWS V14.01,2013-07-30 01:43:00,
2013-07-29 21:44:00,69.3,59.2,30.11,ENE,70,0.0,0.0,70,0.00,,,0.01,VWS V14.01,2013-07-30 01:44:00,
2013-07-29 21:45:00,69.3,59.1,30.11,ENE,70,0.0,0.0,70,0.00,,,0.01,VWS V14.01,2013-07-30 01:45:00,
2013-07-29 21:46:00,69.3,59.0,30.11,ENE,70,0.0,0.0,70,0.00,,,0.01,VWS V14.01,2013-07-30 01:46:00,
2013-07-29 21:47:00,69.3,59.0,30.11,ENE,70,0.0,0.0,70,0.00,,,0.01,VWS V14.01,2013-07-30 01:47:00,
2013-07-29 21:48:00,69.3,59.0,30.11,ENE,70,0.0,0.0,70,0.00,,,0.01,VWS V14.01,2013-07-30 01:48:00,
2013-07-29 21:49:00,69.3,59.0,30.11,ENE,70,0.0,0.0,70,0.00,,,0.01,VWS V14.01,2013-07-30 01:49:00,
2013-07-29 21:50:00,69.2,58.8,30.11,ENE,70,0.0,0.0,70,0.00,,,0.01,VWS V14.01,2013-07-30 01:50:00,
2013-07-29 21:51:00,69.2,58.8,30.11,ENE,70,0.0,0.0,70,0.00,,,0.01,VWS V14.01,2013-07-30 01:51:00,
2013-07-29 21:52:00,69.3,58.9,30.11,ENE,70,0.0,0.0,69,0.00,,,0.01,VWS V14.01,2013-07-30 01:52:00,
2013-07-29 21:53:00,69.3,58.9,30.11,ENE,70,0.0,0.0,69,0.00,,,0.01,VWS V14.01,2013-07-30 01:53:00,
2013-07-29 21:54:00,69.2,58.8,30.11,ENE,70,0.0,0.0,70,0.00,,,0.01,VWS V14.01,2013-07-30 01:54:00,
2013-07-29 21:55:00,69.2,58.8,30.11,ENE,70,0.0,0.0,70,0.00,,,0.01,VWS V14.01,2013-07-30 01:55:00,
2013-07-29 21:56:00,69.2,59.3,30.12,ENE,70,0.0,0.0,71,0.00,,,0.01,VWS V14.01,2013-07-30 01:56:00,
2013-07-29 21:57:00,69.2,59.1,30.12,ENE,70,0.0,0.0,70,0.00,,,0.01,VWS V14.01,2013-07-30 01:57:00,
2013-07-29 21:58:00,69.2,59.3,30.11,ENE,70,0.0,0.0,71,0.00,,,0.01,VWS V14.01,2013-07-30 01:58:00,
2013-07-29 21:59:00,69.2,59.3,30.12,ENE,70,0.0,0.0,71,0.00,,,0.01,VWS V14.01,2013-07-30 01:59:00,
2013-07-29 22:00:00,69.1,59.3,30.12,ENE,70,0.0,0.0,71,0.00,,,0.01,VWS V14.01,2013-07-30 02:00:00,
2013-07-29 22:01:00,69.0,59.2,30.12,ENE,70,0.0,0.0,71,0.00,,,0.01,VWS V14.01,2013-07-30 02:01:00,
2013-07-29 22:02:00,69.1,59.3,30.12,ENE,70,0.0,0.0,71,0.00,,,0.01,VWS V14.01,2013-07-30 02:02:00,
2013-07-29 22:03:00,69.1,59.2,30.12,ENE,70,0.0,0.0,71,0.00,,,0.01,VWS V14.01,2013-07-30 02:03:00,
2013-07-29 22:04:00,69.0,59.2,30.12,ENE,70,0.0,0.0,71,0.00,,,0.01,VWS V14.01,2013-07-30 02:04:00,
2013-07-29 22:05:00,69.0,59.2,30.12,ENE,70,0.0,0.0,71,0.00,,,0.01,VWS V14.01,2013-07-30 02:05:00,
2013-07-29 22:06:00,69.0,59.0,30.12,ENE,70,0.0,0.0,70,0.00,,,0.01,VWS V14.01,2013-07-30 02:06:00,
2013-07-29 22:07:00,69.0,59.0,30.12,ENE,70,0.0,0.0,70,0.00,,,0.01,VWS V14.01,2013-07-30 02:07:00,
2013-07-29 22:08:00,69.0,59.0,30.12,ENE,70,0.0,0.0,70,0.00,,,0.01,VWS V14.01,2013-07-30 02:08:00,
2013-07-29 22:09:00,69.0,59.0,30.12,ENE,70,0.0,0.0,70,0.00,,,0.01,VWS V14.01,2013-07-30 02:09:00,
2013-07-29 22:10:00,68.9,58.8,30.12,ENE,70,0.0,0.0,70,0.00,,,0.01,VWS V14.01,2013-07-30 02:10:00,
2013-07-29 22:11:00,68.9,59.2,30.12,ENE,70,0.0,0.0,71,0.00,,,0.01,VWS V14.01,2013-07-30 02:11:00,
2013-07-29 22:12:00,68.9,58.9,30.12,ENE,70,0.0,0.0,70,0.00,,,0.01,VWS V14.01,2013-07-30 02:12:00,
2013-07-29 22:13:00,68.9,59.1,30.12,ENE,70,0.0,0.0,71,0.00,,,0.01,VWS V14.01,2013-07-30 02:13:00,
2013-07-29 22:14:00,68.9,59.2,30.12,ENE,70,0.0,0.0,71,0.00,,,0.01,VWS V14.01,2013-07-30 02:14:00,
2013-07-29 22:15:00,68.9,59.4,30.12,ENE,70,0.0,0.0,72,0.00,,,0.01,VWS V14.01,2013-07-30 02:15:00,
2013-07-29 22:16:00,68.8,58.9,30.12,ENE,70,0.0,0.0,71,0.00,,,0.01,VWS V14.01,2013-07-30 02:16:00,
2013-07-29 22:17:00,68.8,59.1,30.12,ENE,70,0.0,0.0,71,0.00,,,0.01,VWS V14.01,2013-07-30 02:17:00,
2013-07-29 22:18:00,68.8,59.1,30.12,ENE,70,0.0,0.0,71,0.00,,,0.01,VWS V14.01,2013-07-30 02:18:00,
2013-07-29 22:19:00,68.8,58.9,30.12,ENE,70,0.0,0.0,71,0.00,,,0.01,VWS V14.01,2013-07-30 02:19:00,
2013-07-29 22:20:00,68.8,59.0,30.12,ENE,70,0.0,0.0,71,0.00,,,0.01,VWS V14.01,2013-07-30 02:20:00,
2013-07-29 22:21:00,68.6,58.8,30.12,ENE,70,0.0,0.0,71,0.00,,,0.01,VWS V14.01,2013-07-30 02:21:00,
2013-07-29 22:22:00,68.7,59.2,30.12,ENE,70,0.0,0.0,72,0.00,,,0.01,VWS V14.01,2013-07-30 02:22:00,
2013-07-29 22:23:00,68.7,59.0,30.12,ENE,70,0.0,0.0,71,0.00,,,0.01,VWS V14.01,2013-07-30 02:23:00,
2013-07-29 22:24:00,68.6,58.8,30.12,ENE,70,0.0,0.0,71,0.00,,,0.01,VWS V14.01,2013-07-30 02:24:00,
2013-07-29 22:25:00,68.6,58.4,30.12,ENE,70,0.0,0.0,70,0.00,,,0.01,VWS V14.01,2013-07-30 02:25:00,
2013-07-29 22:26:00,68.5,58.1,30.12,ENE,70,0.0,0.0,69,0.00,,,0.01,VWS V14.01,2013-07-30 02:26:00,
2013-07-29 22:27:00,68.4,57.5,30.12,ENE,70,0.0,0.0,68,0.00,,,0.01,VWS V14.01,2013-07-30 02:27:00,
2013-07-29 22:28:00,68.5,57.9,30.12,ENE,70,0.0,0.0,69,0.00,,,0.01,VWS V14.01,2013-07-30 02:28:00,
2013-07-29 22:29:00,68.5,57.6,30.12,ENE,70,0.0,0.0,68,0.00,,,0.01,VWS V14.01,2013-07-30 02:29:00,
2013-07-29 22:30:00,68.4,57.5,30.12,ENE,70,0.0,0.0,68,0.00,,,0.01,VWS V14.01,2013-07-30 02:30:00,
2013-07-29 22:31:00,68.5,57.5,30.12,ENE,70,0.0,0.0,68,0.00,,,0.01,VWS V14.01,2013-07-30 02:31:00,
2013-07-29 22:32:00,68.4,58.0,30.12,ENE,70,0.0,0.0,69,0.00,,,0.01,VWS V14.01,2013-07-30 02:32:00,
2013-07-29 22:33:00,68.4,57.8,30.12,ENE,70,0.0,0.0,69,0.00,,,0.01,VWS V14.01,2013-07-30 02:33:00,
2013-07-29 22:34:00,68.4,57.9,30.12,ENE,70,0.0,0.0,69,0.00,,,0.01,VWS V14.01,2013-07-30 02:34:00,
2013-07-29 22:35:00,68.4,58.0,30.12,ENE,70,0.0,0.0,69,0.00,,,0.01,VWS V14.01,2013-07-30 02:35:00,
2013-07-29 22:36:00,68.4,58.2,30.12,ENE,70,0.0,0.0,70,0.00,,,0.01,VWS V14.01,2013-07-30 02:36:00,
2013-07-29 22:37:00,68.4,58.3,30.12,ENE,70,0.0,0.0,70,0.00,,,0.01,VWS V14.01,2013-07-30 02:37:00,
2013-07-29 22:38:00,68.5,58.7,30.12,ENE,70,0.0,0.0,71,0.00,,,0.01,VWS V14.01,2013-07-30 02:38:00,
2013-07-29 22:39:00,68.5,58.5,30.12,ENE,70,0.0,0.0,70,0.00,,,0.01,VWS V14.01,2013-07-30 02:39:00,
2013-07-29 22:40:00,68.5,58.7,30.12,ENE,70,0.0,0.0,71,0.00,,,0.01,VWS V14.01,2013-07-30 02:40:00,
2013-07-29 22:41:00,68.5,58.7,30.12,ENE,70,0.0,0.0,71,0.00,,,0.01,VWS V14.01,2013-07-30 02:41:00,
2013-07-29 22:42:00,68.4,58.5,30.12,ENE,70,0.0,0.0,71,0.00,,,0.01,VWS V14.01,2013-07-30 02:42:00,
2013-07-29 22:43:00,68.5,58.3,30.12,ENE,70,0.0,0.0,70,0.00,,,0.01,VWS V14.01,2013-07-30 02:43:00,
2013-07-29 22:44:00,68.5,58.7,30.12,ENE,70,0.0,0.0,71,0.00,,,0.01,VWS V14.01,2013-07-30 02:44:00,
2013-07-29 22:45:00,68.5,58.4,30.12,ENE,70,0.0,0.0,70,0.00,,,0.01,VWS V14.01,2013-07-30 02:45:00,
2013-07-29 22:46:00,68.5,58.3,30.12,ENE,70,0.0,0.0,70,0.00,,,0.01,VWS V14.01,2013-07-30 02:46:00,
2013-07-29 22:47:00,68.5,57.8,30.12,ENE,70,0.0,0.0,69,0.00,,,0.01,VWS V14.01,2013-07-30 02:47:00,
2013-07-29 22:48:00,68.5,57.5,30.13,ENE,70,0.0,0.0,68,0.00,,,0.01,VWS V14.01,2013-07-30 02:48:00,
2013-07-29 22:49:00,68.5,57.6,30.12,ENE,70,0.0,0.0,68,0.00,,,0.01,VWS V14.01,2013-07-30 02:49:00,
2013-07-29 22:50:00,68.5,57.5,30.12,ENE,70,0.0,0.0,68,0.00,,,0.01,VWS V14.01,2013-07-30 02:50:00,
2013-07-29 22:51:00,68.5,57.5,30.12,ENE,70,0.0,0.0,68,0.00,,,0.01,VWS V14.01,2013-07-30 02:51:00,
2013-07-29 22:52:00,68.5,57.2,30.12,NW,326,2.9,8.3,67,0.00,,,0.01,VWS V14.01,2013-07-30 02:52:00,
2013-07-29 22:53:00,68.5,57.9,30.13,NW,326,0.0,0.0,69,0.00,,,0.01,VWS V14.01,2013-07-30 02:53:00,
2013-07-29 22:54:00,68.5,57.5,30.12,NW,326,0.0,0.0,68,0.00,,,0.01,VWS V14.01,2013-07-30 02:54:00,
2013-07-29 22:55:00,68.5,57.5,30.12,NW,326,0.0,0.0,68,0.00,,,0.01,VWS V14.01,2013-07-30 02:55:00,
2013-07-29 22:56:00,68.5,57.9,30.12,NW,326,0.0,0.0,69,0.00,,,0.01,VWS V14.01,2013-07-30 02:56:00,
2013-07-29 22:57:00,68.6,58.8,30.12,NW,326,0.0,0.0,71,0.00,,,0.01,VWS V14.01,2013-07-30 02:57:00,
2013-07-29 22:58:00,68.5,59.0,30.13,NW,326,0.0,0.0,72,0.00,,,0.01,VWS V14.01,2013-07-30 02:58:00,
2013-07-29 22:59:00,68.5,58.9,30.12,NW,326,0.0,0.0,72,0.00,,,0.01,VWS V14.01,2013-07-30 02:59:00,
2013-07-29 23:00:00,68.5,58.8,30.12,NW,326,0.0,1.1,71,0.00,,,0.01,VWS V14.01,2013-07-30 03:00:00,
2013-07-29 23:01:00,68.5,59.1,30.12,NW,326,0.0,0.0,72,0.00,,,0.01,VWS V14.01,2013-07-30 03:01:00,
2013-07-29 23:02:00,68.5,58.8,30.12,NW,326,0.0,0.0,71,0.00,,,0.01,VWS V14.01,2013-07-30 03:02:00,
2013-07-29 23:03:00,68.5,58.1,30.13,NW,326,0.0,0.0,70,0.00,,,0.01,VWS V14.01,2013-07-30 03:03:00,
2013-07-29 23:04:00,68.4,58.2,30.12,NW,326,0.0,0.0,70,0.00,,,0.01,VWS V14.01,2013-07-30 03:04:00,
2013-07-29 23:05:00,68.4,58.2,30.12,NW,326,0.0,0.0,70,0.00,,,0.01,VWS V14.01,2013-07-30 03:05:00,
2013-07-29 23:06:00,68.5,58.2,30.12,NW,326,0.0,0.0,70,0.00,,,0.01,VWS V14.01,2013-07-30 03:06:00,
2013-07-29 23:07:00,68.5,58.1,30.12,NW,326,0.0,0.0,70,0.00,,,0.01,VWS V14.01,2013-07-30 03:07:00,
2013-07-29 23:08:00,68.5,58.4,30.13,NW,326,0.0,0.0,70,0.00,,,0.01,VWS V14.01,2013-07-30 03:08:00,
2013-07-29 23:09:00,68.5,58.0,30.12,NW,326,0.0,0.0,69,0.00,,,0.01,VWS V14.01,2013-07-30 03:09:00,
2013-07-29 23:10:00,68.5,58.2,30.12,NW,326,0.0,0.0,70,0.00,,,0.01,VWS V14.01,2013-07-30 03:10:00,
2013-07-29 23:11:00,68.4,58.2,30.12,NW,326,0.0,0.0,70,0.00,,,0.01,VWS V14.01,2013-07-30 03:11:00,
2013-07-29 23:12:00,68.4,58.4,30.12,NW,326,0.0,0.0,70,0.00,,,0.01,VWS V14.01,2013-07-30 03:12:00,
2013-07-29 23:13:00,68.5,59.7,30.12,NW,326,0.0,0.0,74,0.00,,,0.01,VWS V14.01,2013-07-30 03:13:00,
2013-07-29 23:14:00,68.2,60.3,30.13,NW,326,0.0,0.0,76,0.00,,,0.01,VWS V14.01,2013-07-30 03:14:00,
2013-07-29 23:15:00,68.4,60.1,30.13,NW,326,0.0,0.0,75,0.00,,,0.01,VWS V14.01,2013-07-30 03:15:00,
2013-07-29 23:16:00,68.3,60.2,30.13,NW,326,0.0,0.0,75,0.00,,,0.01,VWS V14.01,2013-07-30 03:16:00,
2013-07-29 23:17:00,68.2,60.3,30.13,NW,326,0.0,0.0,76,0.00,,,0.01,VWS V14.01,2013-07-30 03:17:00,
2013-07-29 23:18:00,68.1,58.9,30.13,NW,326,0.0,0.0,72,0.00,,,0.01,VWS V14.01,2013-07-30 03:18:00,
2013-07-29 23:19:00,68.0,57.9,30.13,NW,326,0.0,0.0,70,0.00,,,0.01,VWS V14.01,2013-07-30 03:19:00,
2013-07-29 23:20:00,68.0,57.7,30.13,NW,326,0.0,0.0,70,0.00,,,0.01,VWS V14.01,2013-07-30 03:20:00,
2013-07-29 23:21:00,68.0,57.7,30.13,NW,326,0.0,0.0,70,0.00,,,0.01,VWS V14.01,2013-07-30 03:21:00,
2013-07-29 23:22:00,68.0,57.9,30.13,NW,326,0.0,0.0,70,0.00,,,0.01,VWS V14.01,2013-07-30 03:22:00,
2013-07-29 23:23:00,68.0,57.8,30.13,NW,326,0.0,0.0,70,0.00,,,0.01,VWS V14.01,2013-07-30 03:23:00,
2013-07-29 23:24:00,68.0,57.4,30.13,NW,326,0.0,0.0,69,0.00,,,0.01,VWS V14.01,2013-07-30 03:24:00,
2013-07-29 23:25:00,68.0,57.5,30.13,NW,326,0.0,0.0,69,0.00,,,0.01,VWS V14.01,2013-07-30 03:25:00,
2013-07-29 23:26:00,68.0,57.3,30.13,NW,326,0.0,0.0,69,0.00,,,0.01,VWS V14.01,2013-07-30 03:26:00,
2013-07-29 23:27:00,68.0,57.3,30.13,NW,326,0.0,0.0,69,0.00,,,0.01,VWS V14.01,2013-07-30 03:27:00,
2013-07-29 23:28:00,68.0,57.5,30.13,NW,326,0.0,0.0,69,0.00,,,0.01,VWS V14.01,2013-07-30 03:28:00,
2013-07-29 23:29:00,68.0,57.2,30.13,NW,326,0.0,0.0,68,0.00,,,0.01,VWS V14.01,2013-07-30 03:29:00,
2013-07-29 23:30:00,68.0,57.6,30.13,NW,326,0.0,0.0,69,0.00,,,0.01,VWS V14.01,2013-07-30 03:30:00,
2013-07-29 23:31:00,68.0,57.7,30.13,NW,326,0.0,0.0,70,0.00,,,0.01,VWS V14.01,2013-07-30 03:31:00,
2013-07-29 23:32:00,68.0,57.2,30.13,NW,326,0.0,0.0,68,0.00,,,0.01,VWS V14.01,2013-07-30 03:32:00,
2013-07-29 23:33:00,68.1,58.0,30.13,NW,326,0.0,0.0,70,0.00,,,0.01,VWS V14.01,2013-07-30 03:33:00,
2013-07-29 23:34:00,68.0,58.8,30.13,NW,326,0.0,0.0,72,0.00,,,0.01,VWS V14.01,2013-07-30 03:34:00,
2013-07-29 23:35:00,68.0,58.0,30.13,NW,326,0.0,0.0,70,0.00,,,0.01,VWS V14.01,2013-07-30 03:35:00,
2013-07-29 23:36:00,68.0,58.6,30.13,NW,326,0.0,0.0,72,0.00,,,0.01,VWS V14.01,2013-07-30 03:36:00,
2013-07-29 23:37:00,68.0,58.8,30.13,NW,326,0.0,0.0,72,0.00,,,0.01,VWS V14.01,2013-07-30 03:37:00,
2013-07-29 23:38:00,68.0,58.8,30.13,NW,326,0.0,0.0,72,0.00,,,0.01,VWS V14.01,2013-07-30 03:38:00,
2013-07-29 23:39:00,67.8,57.8,30.13,NW,326,0.0,0.0,70,0.00,,,0.01,VWS V14.01,2013-07-30 03:39:00,
2013-07-29 23:40:00,67.9,57.9,30.13,NW,326,0.0,0.0,70,0.00,,,0.01,VWS V14.01,2013-07-30 03:40:00,
2013-07-29 23:41:00,67.9,57.6,30.13,NW,326,0.0,0.0,70,0.00,,,0.01,VWS V14.01,2013-07-30 03:41:00,
2013-07-29 23:42:00,67.8,57.2,30.13,NW,326,0.0,0.0,69,0.00,,,0.01,VWS V14.01,2013-07-30 03:42:00,
2013-07-29 23:43:00,67.9,57.8,30.13,NW,326,0.0,0.0,70,0.00,,,0.01,VWS V14.01,2013-07-30 03:43:00,
2013-07-29 23:44:00,67.8,58.3,30.13,NW,326,0.0,0.0,72,0.00,,,0.01,VWS V14.01,2013-07-30 03:44:00,
2013-07-29 23:45:00,67.4,57.6,30.14,NW,326,0.0,0.0,71,0.00,,,0.01,VWS V14.01,2013-07-30 03:45:00,
2013-07-29 23:46:00,67.6,59.1,30.13,NW,326,0.0,0.0,74,0.00,,,0.01,VWS V14.01,2013-07-30 03:46:00,
2013-07-29 23:47:00,67.5,57.6,30.13,NW,326,0.0,0.0,71,0.00,,,0.01,VWS V14.01,2013-07-30 03:47:00,
2013-07-29 23:48:00,67.4,57.6,30.14,NW,326,0.0,0.0,71,0.00,,,0.01,VWS V14.01,2013-07-30 03:48:00,
2013-07-29 23:49:00,67.4,57.0,30.13,NW,326,0.0,0.0,69,0.00,,,0.01,VWS V14.01,2013-07-30 03:49:00,
2013-07-29 23:50:00,67.4,57.0,30.14,NW,326,0.0,0.0,69,0.00,,,0.01,VWS V14.01,2013-07-30 03:50:00,
2013-07-29 23:51:00,67.3,56.9,30.13,NW,326,0.0,0.0,69,0.00,,,0.01,VWS V14.01,2013-07-30 03:51:00,
2013-07-29 23:52:00,67.3,56.8,30.13,NW,326,0.0,0.0,69,0.00,,,0.01,VWS V14.01,2013-07-30 03:52:00,
2013-07-29 23:53:00,67.4,57.0,30.14,NW,326,0.0,0.0,69,0.00,,,0.01,VWS V14.01,2013-07-30 03:53:00,
2013-07-29 23:54:00,67.4,57.1,30.14,NW,326,0.0,0.0,70,0.00,,,0.01,VWS V14.01,2013-07-30 03:54:00,
2013-07-29 23:55:00,67.5,57.1,30.13,NW,326,0.0,0.0,69,0.00,,,0.01,VWS V14.01,2013-07-30 03:55:00,
2013-07-29 23:56:00,67.4,57.1,30.14,NW,326,0.0,0.0,70,0.00,,,0.01,VWS V14.01,2013-07-30 03:56:00,
2013-07-29 23:57:00,67.5,57.1,30.14,NW,326,0.0,0.0,69,0.00,,,0.01,VWS V14.01,2013-07-30 03:57:00,
2013-07-29 23:58:00,67.4,56.9,30.14,NW,326,0.0,0.0,69,0.00,,,0.01,VWS V14.01,2013-07-30 03:58:00,
2013-07-29 23:59:00,67.4,57.2,30.13,NW,326,0.0,0.0,70,0.00,,,0.01,VWS V14.01,2013-07-30 03:59:00,